Time,TemperatureF,DewpointF,PressureIn,WindDirection,WindDirectionDegrees,WindSpeedMPH,WindSpeedGustMPH,Humidity,HourlyPrecipIn,Conditions,Clouds,dailyrainin,SoftwareType,DateUTC
2013-03-14 00:02:00,15.9,7.2,30.28,WNW,294,0.0,0.0,68,0.00,CLR,,0.00,WeatherDisplay:10.37,2013-03-14 05:02:00,
2013-03-14 00:03:00,15.8,7.1,30.28,WNW,294,0.0,0.0,68,0.00,CLR,,0.00,WeatherDisplay:10.37,2013-03-14 05:03:00,
2013-03-14 00:04:00,15.8,7.1,30.28,WNW,294,0.0,0.0,68,0.00,CLR,,0.00,WeatherDisplay:10.37,2013-03-14 05:04:00,
2013-03-14 00:07:00,15.8,7.1,30.28,WNW,294,0.0,0.0,68,0.00,CLR,,0.00,WeatherDisplay:10.37,2013-03-14 05:07:00,
2013-03-14 00:08:00,15.7,7.0,30.28,WNW,294,0.0,0.0,68,0.00,CLR,,0.00,WeatherDisplay:10.37,2013-03-14 05:08:00,
2013-03-14 00:09:00,15.8,7.1,30.28,WNW,294,0.0,0.0,68,0.00,CLR,,0.00,WeatherDisplay:10.37,2013-03-14 05:09:00,
2013-03-14 00:10:00,15.6,6.9,30.28,WNW,294,0.0,0.0,68,0.00,CLR,,0.00,WeatherDisplay:10.37,2013-03-14 05:10:00,
2013-03-14 00:13:00,15.5,7.1,30.28,WNW,294,0.0,0.0,69,0.00,CLR,,0.00,WeatherDisplay:10.37,2013-03-14 05:13:00,
2013-03-14 00:14:00,15.6,7.2,30.28,WNW,294,0.0,0.0,69,0.00,CLR,,0.00,WeatherDisplay:10.37,2013-03-14 05:14:00,
2013-03-14 00:15:00,15.6,7.2,30.28,WNW,294,0.0,0.0,69,0.00,CLR,,0.00,WeatherDisplay:10.37,2013-03-14 05:15:00,
2013-03-14 00:18:00,15.6,7.2,30.28,WNW,294,0.0,0.0,69,0.00,CLR,,0.00,WeatherDisplay:10.37,2013-03-14 05:18:00,
2013-03-14 00:19:00,15.5,7.1,30.28,WNW,294,0.0,0.0,69,0.00,CLR,,0.00,WeatherDisplay:10.37,2013-03-14 05:19:00,
2013-03-14 00:20:00,15.5,7.1,30.28,WNW,294,0.0,0.0,69,0.00,CLR,,0.00,WeatherDisplay:10.37,2013-03-14 05:20:00,
2013-03-14 00:23:00,15.5,7.1,30.28,WNW,294,0.0,0.0,69,0.00,CLR,,0.00,WeatherDisplay:10.37,2013-03-14 05:23:00,
2013-03-14 00:24:00,15.4,7.0,30.28,WNW,294,0.0,0.0,69,0.00,CLR,,0.00,WeatherDisplay:10.37,2013-03-14 05:24:00,
2013-03-14 00:25:00,15.5,7.1,30.28,WNW,294,0.0,0.0,69,0.00,CLR,,0.00,WeatherDisplay:10.37,2013-03-14 05:25:00,
2013-03-14 00:28:00,15.5,7.1,30.28,WNW,294,0.0,0.0,69,0.00,CLR,,0.00,WeatherDisplay:10.37,2013-03-14 05:28:00,
2013-03-14 00:29:00,15.4,7.0,30.28,WNW,294,0.0,0.0,69,0.00,CLR,,0.00,WeatherDisplay:10.37,2013-03-14 05:29:00,
2013-03-14 00:31:00,15.4,7.0,30.28,WNW,294,0.0,0.0,69,0.00,CLR,,0.00,WeatherDisplay:10.37,2013-03-14 05:31:00,
2013-03-14 00:33:00,15.4,7.0,30.28,WNW,294,0.0,0.0,69,0.00,CLR,,0.00,WeatherDisplay:10.37,2013-03-14 05:33:00,
2013-03-14 00:34:00,15.5,7.1,30.28,WNW,294,0.0,0.0,69,0.00,CLR,,0.00,WeatherDisplay:10.37,2013-03-14 05:34:00,
2013-03-14 00:36:00,15.5,7.5,30.28,WNW,294,0.0,0.0,70,0.00,CLR,,0.00,WeatherDisplay:10.37,2013-03-14 05:36:00,
2013-03-14 00:38:00,15.5,7.5,30.28,WNW,294,0.0,0.0,70,0.00,CLR,,0.00,WeatherDisplay:10.37,2013-03-14 05:38:00,
2013-03-14 00:39:00,15.4,7.4,30.28,WNW,294,0.0,0.0,70,0.00,CLR,,0.00,WeatherDisplay:10.37,2013-03-14 05:39:00,
2013-03-14 00:42:00,15.4,7.4,30.28,WNW,294,0.0,0.0,70,0.00,CLR,,0.00,WeatherDisplay:10.37,2013-03-14 05:42:00,
2013-03-14 00:43:00,15.4,7.4,30.28,WNW,294,0.0,0.0,70,0.00,CLR,,0.00,WeatherDisplay:10.37,2013-03-14 05:43:00,
2013-03-14 00:44:00,15.2,7.2,30.28,WNW,294,0.0,0.0,70,0.00,CLR,,0.00,WeatherDisplay:10.37,2013-03-14 05:44:00,
2013-03-14 00:47:00,15.2,7.2,30.28,WNW,294,0.0,0.0,70,0.00,CLR,,0.00,WeatherDisplay:10.37,2013-03-14 05:47:00,
2013-03-14 00:48:00,15.3,7.3,30.28,WNW,294,0.0,0.0,70,0.00,CLR,,0.00,WeatherDisplay:10.37,2013-03-14 05:48:00,
2013-03-14 00:49:00,15.2,7.2,30.28,WNW,294,0.0,0.0,70,0.00,CLR,,0.00,WeatherDisplay:10.37,2013-03-14 05:49:00,
2013-03-14 00:50:00,15.3,7.3,30.28,WNW,294,0.0,0.0,70,0.00,CLR,,0.00,WeatherDisplay:10.37,2013-03-14 05:50:00,
2013-03-14 00:53:00,15.2,7.2,30.28,WNW,294,0.0,0.0,70,0.00,CLR,,0.00,WeatherDisplay:10.37,2013-03-14 05:53:00,
2013-03-14 00:54:00,15.2,7.2,30.28,WNW,294,0.0,0.0,70,0.00,CLR,,0.00,WeatherDisplay:10.37,2013-03-14 05:54:00,
2013-03-14 00:55:00,15.2,7.2,30.28,WNW,294,0.0,0.0,70,0.00,CLR,,0.00,WeatherDisplay:10.37,2013-03-14 05:55:00,
2013-03-14 00:58:00,15.1,7.1,30.28,WNW,294,0.0,0.0,70,0.00,CLR,,0.00,WeatherDisplay:10.37,2013-03-14 05:58:00,
2013-03-14 01:00:00,15.1,7.1,30.28,WNW,294,0.0,0.0,70,0.00,CLR,,0.00,WeatherDisplay:10.37,2013-03-14 06:00:00,
2013-03-14 01:03:00,15.0,7.0,30.27,WNW,294,0.0,0.0,70,0.00,CLR,,0.00,WeatherDisplay:10.37,2013-03-14 06:03:00,
2013-03-14 01:04:00,15.1,7.1,30.27,WNW,294,0.0,0.0,70,0.00,CLR,,0.00,WeatherDisplay:10.37,2013-03-14 06:04:00,
2013-03-14 01:05:00,15.0,7.0,30.27,WNW,294,0.0,0.0,70,0.00,CLR,,0.00,WeatherDisplay:10.37,2013-03-14 06:05:00,
2013-03-14 01:06:00,15.0,7.0,30.27,WNW,294,0.0,0.0,70,0.00,CLR,,0.00,WeatherDisplay:10.37,2013-03-14 06:06:00,
2013-03-14 01:09:00,15.0,7.0,30.27,WNW,294,0.0,0.0,70,0.00,CLR,,0.00,WeatherDisplay:10.37,2013-03-14 06:09:00,
2013-03-14 01:10:00,14.9,6.9,30.27,WNW,294,0.0,0.0,70,0.00,CLR,,0.00,WeatherDisplay:10.37,2013-03-14 06:10:00,
2013-03-14 01:11:00,14.9,6.9,30.27,WNW,294,0.0,0.0,70,0.00,CLR,,0.00,WeatherDisplay:10.37,2013-03-14 06:11:00,
2013-03-14 01:14:00,14.7,6.7,30.27,WNW,294,0.0,0.0,70,0.00,CLR,,0.00,WeatherDisplay:10.37,2013-03-14 06:14:00,
2013-03-14 01:15:00,14.9,6.9,30.27,WNW,294,0.0,0.0,70,0.00,CLR,,0.00,WeatherDisplay:10.37,2013-03-14 06:15:00,
2013-03-14 01:16:00,14.7,6.7,30.27,WNW,294,0.0,0.0,70,0.00,CLR,,0.00,WeatherDisplay:10.37,2013-03-14 06:16:00,
2013-03-14 01:19:00,14.6,6.9,30.27,WNW,294,0.0,0.0,71,0.00,CLR,,0.00,WeatherDisplay:10.37,2013-03-14 06:19:00,
2013-03-14 01:20:00,14.5,6.8,30.27,WNW,294,0.0,0.0,71,0.00,CLR,,0.00,WeatherDisplay:10.37,2013-03-14 06:20:00,
2013-03-14 01:21:00,14.6,6.9,30.27,WNW,294,0.0,0.0,71,0.00,CLR,,0.00,WeatherDisplay:10.37,2013-03-14 06:21:00,
2013-03-14 01:24:00,14.7,7.0,30.27,WNW,294,0.0,0.0,71,0.00,CLR,,0.00,WeatherDisplay:10.37,2013-03-14 06:24:00,
2013-03-14 01:25:00,14.5,6.8,30.26,WNW,294,0.0,0.0,71,0.00,CLR,,0.00,WeatherDisplay:10.37,2013-03-14 06:25:00,
2013-03-14 01:26:00,14.6,6.9,30.26,WNW,294,0.0,0.0,71,0.00,CLR,,0.00,WeatherDisplay:10.37,2013-03-14 06:26:00,
2013-03-14 01:29:00,14.7,7.3,30.27,WSW,246,1.3,2.3,72,0.00,CLR,,0.00,WeatherDisplay:10.37,2013-03-14 06:29:00,
2013-03-14 01:30:00,14.7,7.3,30.27,WSW,246,0.0,1.1,72,0.00,CLR,,0.00,WeatherDisplay:10.37,2013-03-14 06:30:00,
2013-03-14 01:32:00,14.6,7.2,30.27,WSW,246,0.0,0.0,72,0.00,CLR,,0.00,WeatherDisplay:10.37,2013-03-14 06:32:00,
2013-03-14 01:34:00,14.7,7.3,30.27,WSW,246,0.0,0.0,72,0.00,CLR,,0.00,WeatherDisplay:10.37,2013-03-14 06:34:00,
2013-03-14 01:36:00,14.7,7.3,30.27,WSW,246,0.0,0.0,72,0.00,CLR,,0.00,WeatherDisplay:10.37,2013-03-14 06:36:00,
2013-03-14 01:37:00,14.7,7.3,30.27,WSW,246,0.0,0.0,72,0.00,CLR,,0.00,WeatherDisplay:10.37,2013-03-14 06:37:00,
2013-03-14 01:39:00,14.7,7.3,30.27,WSW,254,0.1,0.0,72,0.00,CLR,,0.00,WeatherDisplay:10.37,2013-03-14 06:39:00,
2013-03-14 01:41:00,14.7,7.3,30.27,West,264,1.0,1.1,72,0.00,CLR,,0.00,WeatherDisplay:10.37,2013-03-14 06:41:00,
2013-03-14 01:42:00,14.7,7.3,30.27,West,264,0.0,1.1,72,0.00,CLR,,0.00,WeatherDisplay:10.37,2013-03-14 06:42:00,
2013-03-14 01:45:00,14.6,7.2,30.27,West,264,0.0,0.0,72,0.00,CLR,,0.00,WeatherDisplay:10.37,2013-03-14 06:45:00,
2013-03-14 01:47:00,14.6,7.2,30.27,West,264,0.0,0.0,72,0.00,CLR,,0.00,WeatherDisplay:10.37,2013-03-14 06:47:00,
2013-03-14 01:50:00,14.6,7.2,30.27,West,264,0.0,0.0,72,0.00,CLR,,0.00,WeatherDisplay:10.37,2013-03-14 06:50:00,
2013-03-14 01:52:00,14.5,7.1,30.27,West,264,0.0,0.0,72,0.00,CLR,,0.00,WeatherDisplay:10.37,2013-03-14 06:52:00,
2013-03-14 01:53:00,14.5,7.1,30.27,West,264,0.0,0.0,72,0.00,CLR,,0.00,WeatherDisplay:10.37,2013-03-14 06:53:00,
2013-03-14 01:55:00,14.6,7.2,30.27,West,264,0.0,0.0,72,0.00,CLR,,0.00,WeatherDisplay:10.37,2013-03-14 06:55:00,
2013-03-14 01:57:00,14.5,7.1,30.27,West,264,0.0,0.0,72,0.00,CLR,,0.00,WeatherDisplay:10.37,2013-03-14 06:57:00,
2013-03-14 01:58:00,14.6,7.2,30.27,West,264,0.0,0.0,72,0.00,CLR,,0.00,WeatherDisplay:10.37,2013-03-14 06:58:00,
2013-03-14 02:00:00,14.4,7.3,30.27,West,264,0.0,0.0,73,0.00,CLR,,0.00,WeatherDisplay:10.37,2013-03-14 07:00:00,
2013-03-14 02:03:00,14.5,7.4,30.27,West,264,0.0,0.0,73,0.00,CLR,,0.00,WeatherDisplay:10.37,2013-03-14 07:03:00,
2013-03-14 02:04:00,14.4,7.3,30.27,West,264,0.0,0.0,73,0.00,CLR,,0.00,WeatherDisplay:10.37,2013-03-14 07:04:00,
2013-03-14 02:05:00,14.5,7.4,30.27,West,264,0.0,0.0,73,0.00,CLR,,0.00,WeatherDisplay:10.37,2013-03-14 07:05:00,
2013-03-14 02:08:00,14.5,7.4,30.27,West,264,0.0,0.0,73,0.00,CLR,,0.00,WeatherDisplay:10.37,2013-03-14 07:08:00,
2013-03-14 02:09:00,14.5,7.4,30.27,West,264,0.0,0.0,73,0.00,CLR,,0.00,WeatherDisplay:10.37,2013-03-14 07:09:00,
2013-03-14 02:10:00,14.4,7.3,30.27,West,264,0.0,0.0,73,0.00,CLR,,0.00,WeatherDisplay:10.37,2013-03-14 07:10:00,
2013-03-14 02:13:00,14.4,7.3,30.26,West,264,0.0,0.0,73,0.00,CLR,,0.00,WeatherDisplay:10.37,2013-03-14 07:13:00,
2013-03-14 02:14:00,14.5,7.4,30.26,West,264,0.0,0.0,73,0.00,CLR,,0.00,WeatherDisplay:10.37,2013-03-14 07:14:00,
2013-03-14 02:15:00,14.3,7.2,30.26,West,264,0.0,0.0,73,0.00,CLR,,0.00,WeatherDisplay:10.37,2013-03-14 07:15:00,
2013-03-14 02:18:00,14.4,7.3,30.27,West,264,0.0,0.0,73,0.00,CLR,,0.00,WeatherDisplay:10.37,2013-03-14 07:18:00,
2013-03-14 02:19:00,14.4,7.3,30.27,West,264,0.0,0.0,73,0.00,CLR,,0.00,WeatherDisplay:10.37,2013-03-14 07:19:00,
2013-03-14 02:20:00,14.3,7.2,30.27,West,264,0.0,0.0,73,0.00,CLR,,0.00,WeatherDisplay:10.37,2013-03-14 07:20:00,
2013-03-14 02:23:00,14.2,7.1,30.27,West,264,0.0,0.0,73,0.00,CLR,,0.00,WeatherDisplay:10.37,2013-03-14 07:23:00,
2013-03-14 02:24:00,14.3,7.2,30.27,West,264,0.0,0.0,73,0.00,CLR,,0.00,WeatherDisplay:10.37,2013-03-14 07:24:00,
2013-03-14 02:26:00,14.3,7.2,30.27,West,264,0.0,0.0,73,0.00,CLR,,0.00,WeatherDisplay:10.37,2013-03-14 07:26:00,
2013-03-14 02:28:00,14.2,7.1,30.26,West,264,0.0,0.0,73,0.00,CLR,,0.00,WeatherDisplay:10.37,2013-03-14 07:28:00,
2013-03-14 02:29:00,14.2,7.1,30.26,West,264,0.0,0.0,73,0.00,CLR,,0.00,WeatherDisplay:10.37,2013-03-14 07:29:00,
2013-03-14 02:30:00,14.2,7.1,30.26,West,264,0.0,0.0,73,0.00,CLR,,0.00,WeatherDisplay:10.37,2013-03-14 07:30:00,
2013-03-14 02:31:00,14.2,7.1,30.26,West,264,0.0,0.0,73,0.00,CLR,,0.00,WeatherDisplay:10.37,2013-03-14 07:31:00,
2013-03-14 02:33:00,14.1,7.0,30.26,West,264,0.0,0.0,73,0.00,CLR,,0.00,WeatherDisplay:10.37,2013-03-14 07:33:00,
2013-03-14 02:34:00,13.9,6.8,30.26,West,264,0.0,0.0,73,0.00,CLR,,0.00,WeatherDisplay:10.37,2013-03-14 07:34:00,
2013-03-14 02:35:00,14.0,6.9,30.26,West,264,0.0,0.0,73,0.00,CLR,,0.00,WeatherDisplay:10.37,2013-03-14 07:35:00,
2013-03-14 02:36:00,14.0,6.9,30.26,West,264,0.0,0.0,73,0.00,CLR,,0.00,WeatherDisplay:10.37,2013-03-14 07:36:00,
2013-03-14 02:38:00,13.9,6.8,30.26,West,264,0.0,0.0,73,0.00,CLR,,0.00,WeatherDisplay:10.37,2013-03-14 07:38:00,
2013-03-14 02:39:00,13.8,6.7,30.26,West,264,0.0,0.0,73,0.00,CLR,,0.00,WeatherDisplay:10.37,2013-03-14 07:39:00,
2013-03-14 02:41:00,13.6,6.5,30.26,West,264,0.0,0.0,73,0.00,CLR,,0.00,WeatherDisplay:10.37,2013-03-14 07:41:00,
2013-03-14 02:42:00,13.7,6.6,30.26,West,264,0.0,0.0,73,0.00,CLR,,0.00,WeatherDisplay:10.37,2013-03-14 07:42:00,
2013-03-14 02:43:00,13.5,6.5,30.26,West,264,0.0,0.0,73,0.00,CLR,,0.00,WeatherDisplay:10.37,2013-03-14 07:43:00,
2013-03-14 02:45:00,13.5,6.5,30.26,West,264,0.0,0.0,73,0.00,CLR,,0.00,WeatherDisplay:10.37,2013-03-14 07:45:00,
2013-03-14 02:47:00,13.4,6.4,30.26,West,264,0.0,0.0,73,0.00,CLR,,0.00,WeatherDisplay:10.37,2013-03-14 07:47:00,
2013-03-14 02:49:00,13.4,6.4,30.26,West,264,0.0,0.0,73,0.00,CLR,,0.00,WeatherDisplay:10.37,2013-03-14 07:49:00,
2013-03-14 02:50:00,13.3,6.3,30.26,West,264,0.0,0.0,73,0.00,CLR,,0.00,WeatherDisplay:10.37,2013-03-14 07:50:00,
2013-03-14 02:52:00,13.3,6.3,30.26,West,264,0.0,0.0,73,0.00,CLR,,0.00,WeatherDisplay:10.37,2013-03-14 07:52:00,
2013-03-14 02:53:00,13.1,6.1,30.26,West,264,0.0,0.0,73,0.00,CLR,,0.00,WeatherDisplay:10.37,2013-03-14 07:53:00,
2013-03-14 02:54:00,13.1,6.1,30.26,West,264,0.0,0.0,73,0.00,CLR,,0.00,WeatherDisplay:10.37,2013-03-14 07:54:00,
2013-03-14 02:55:00,13.0,6.0,30.26,West,264,0.0,0.0,73,0.00,CLR,,0.00,WeatherDisplay:10.37,2013-03-14 07:55:00,
2013-03-14 02:57:00,13.0,6.0,30.26,West,264,0.0,0.0,73,0.00,CLR,,0.00,WeatherDisplay:10.37,2013-03-14 07:57:00,
2013-03-14 02:58:00,12.9,5.9,30.26,West,264,0.0,0.0,73,0.00,CLR,,0.00,WeatherDisplay:10.37,2013-03-14 07:58:00,
2013-03-14 02:59:00,12.8,5.8,30.26,West,264,0.0,0.0,73,0.00,CLR,,0.00,WeatherDisplay:10.37,2013-03-14 07:59:00,
2013-03-14 03:00:00,12.8,5.8,30.26,West,264,0.0,0.0,73,0.00,CLR,,0.00,WeatherDisplay:10.37,2013-03-14 08:00:00,
2013-03-14 03:02:00,12.7,5.7,30.26,West,264,0.0,0.0,73,0.00,CLR,,0.00,WeatherDisplay:10.37,2013-03-14 08:02:00,
2013-03-14 03:03:00,12.7,5.7,30.26,West,264,0.0,0.0,73,0.00,CLR,,0.00,WeatherDisplay:10.37,2013-03-14 08:03:00,
2013-03-14 03:04:00,12.7,5.7,30.26,West,264,0.0,0.0,73,0.00,CLR,,0.00,WeatherDisplay:10.37,2013-03-14 08:04:00,
2013-03-14 03:05:00,12.7,5.7,30.26,West,264,0.0,0.0,73,0.00,CLR,,0.00,WeatherDisplay:10.37,2013-03-14 08:05:00,
2013-03-14 03:07:00,12.6,5.9,30.26,West,264,0.0,0.0,74,0.00,CLR,,0.00,WeatherDisplay:10.37,2013-03-14 08:07:00,
2013-03-14 03:08:00,12.6,5.9,30.26,West,264,0.0,0.0,74,0.00,CLR,,0.00,WeatherDisplay:10.37,2013-03-14 08:08:00,
2013-03-14 03:09:00,12.4,5.7,30.26,West,264,0.0,0.0,74,0.00,CLR,,0.00,WeatherDisplay:10.37,2013-03-14 08:09:00,
2013-03-14 03:10:00,12.4,5.7,30.26,West,264,0.0,0.0,74,0.00,CLR,,0.00,WeatherDisplay:10.37,2013-03-14 08:10:00,
2013-03-14 03:13:00,12.3,5.6,30.26,West,264,0.0,0.0,74,0.00,CLR,,0.00,WeatherDisplay:10.37,2013-03-14 08:13:00,
2013-03-14 03:14:00,12.3,5.6,30.26,West,264,0.0,0.0,74,0.00,CLR,,0.00,WeatherDisplay:10.37,2013-03-14 08:14:00,
2013-03-14 03:17:00,12.1,5.4,30.26,West,264,0.0,0.0,74,0.00,CLR,,0.00,WeatherDisplay:10.37,2013-03-14 08:17:00,
2013-03-14 03:18:00,11.9,5.2,30.26,West,264,0.0,0.0,74,0.00,CLR,,0.00,WeatherDisplay:10.37,2013-03-14 08:18:00,
2013-03-14 03:19:00,12.0,5.3,30.26,West,264,0.0,0.0,74,0.00,CLR,,0.00,WeatherDisplay:10.37,2013-03-14 08:19:00,
2013-03-14 03:22:00,11.9,5.2,30.26,West,264,0.0,0.0,74,0.00,CLR,,0.00,WeatherDisplay:10.37,2013-03-14 08:22:00,
2013-03-14 03:23:00,11.9,5.2,30.25,West,264,0.0,0.0,74,0.00,CLR,,0.00,WeatherDisplay:10.37,2013-03-14 08:23:00,
2013-03-14 03:24:00,11.8,5.1,30.25,West,264,0.0,0.0,74,0.00,CLR,,0.00,WeatherDisplay:10.37,2013-03-14 08:24:00,
2013-03-14 03:25:00,11.8,5.1,30.25,West,264,0.0,0.0,74,0.00,CLR,,0.00,WeatherDisplay:10.37,2013-03-14 08:25:00,
2013-03-14 03:27:00,11.9,5.2,30.25,West,264,0.0,0.0,74,0.00,CLR,,0.00,WeatherDisplay:10.37,2013-03-14 08:27:00,
2013-03-14 03:28:00,11.7,5.0,30.25,West,264,0.0,0.0,74,0.00,CLR,,0.00,WeatherDisplay:10.37,2013-03-14 08:28:00,
2013-03-14 03:29:00,11.6,4.9,30.25,West,264,0.0,0.0,74,0.00,CLR,,0.00,WeatherDisplay:10.37,2013-03-14 08:29:00,
2013-03-14 03:30:00,11.6,4.9,30.25,West,264,0.0,0.0,74,0.00,CLR,,0.00,WeatherDisplay:10.37,2013-03-14 08:30:00,
2013-03-14 03:32:00,11.4,4.7,30.25,West,264,0.0,0.0,74,0.00,CLR,,0.00,WeatherDisplay:10.37,2013-03-14 08:32:00,
2013-03-14 03:34:00,11.5,4.8,30.25,West,264,0.0,0.0,74,0.00,CLR,,0.00,WeatherDisplay:10.37,2013-03-14 08:34:00,
2013-03-14 03:35:00,11.6,4.9,30.25,West,264,0.0,0.0,74,0.00,CLR,,0.00,WeatherDisplay:10.37,2013-03-14 08:35:00,
2013-03-14 03:37:00,11.2,4.5,30.25,West,264,0.0,0.0,74,0.00,CLR,,0.00,WeatherDisplay:10.37,2013-03-14 08:37:00,
2013-03-14 03:39:00,11.4,5.0,30.25,West,264,0.0,0.0,75,0.00,CLR,,0.00,WeatherDisplay:10.37,2013-03-14 08:39:00,
2013-03-14 03:40:00,11.2,4.8,30.25,West,264,0.0,0.0,75,0.00,CLR,,0.00,WeatherDisplay:10.37,2013-03-14 08:40:00,
2013-03-14 03:42:00,11.3,4.9,30.25,West,264,0.0,0.0,75,0.00,CLR,,0.00,WeatherDisplay:10.37,2013-03-14 08:42:00,
2013-03-14 03:44:00,11.3,4.9,30.25,West,264,0.0,0.0,75,0.00,CLR,,0.00,WeatherDisplay:10.37,2013-03-14 08:44:00,
2013-03-14 03:45:00,11.3,4.9,30.25,West,264,0.0,0.0,75,0.00,CLR,,0.00,WeatherDisplay:10.37,2013-03-14 08:45:00,
2013-03-14 03:47:00,11.2,4.8,30.25,West,264,0.0,0.0,75,0.00,CLR,,0.00,WeatherDisplay:10.37,2013-03-14 08:47:00,
2013-03-14 03:49:00,11.2,4.8,30.25,West,264,0.0,0.0,75,0.00,CLR,,0.00,WeatherDisplay:10.37,2013-03-14 08:49:00,
2013-03-14 03:50:00,11.2,4.8,30.25,West,264,0.0,0.0,75,0.00,CLR,,0.00,WeatherDisplay:10.37,2013-03-14 08:50:00,
2013-03-14 03:52:00,11.0,4.6,30.25,West,264,0.0,0.0,75,0.00,CLR,,0.00,WeatherDisplay:10.37,2013-03-14 08:52:00,
2013-03-14 03:54:00,11.0,4.6,30.25,West,264,0.0,0.0,75,0.00,CLR,,0.00,WeatherDisplay:10.37,2013-03-14 08:54:00,
2013-03-14 03:55:00,11.0,4.6,30.25,West,264,0.0,0.0,75,0.00,CLR,,0.00,WeatherDisplay:10.37,2013-03-14 08:55:00,
2013-03-14 03:58:00,11.0,4.9,30.25,West,264,0.0,0.0,76,0.00,CLR,,0.00,WeatherDisplay:10.37,2013-03-14 08:58:00,
2013-03-14 03:59:00,10.9,4.8,30.25,West,264,0.0,0.0,76,0.00,CLR,,0.00,WeatherDisplay:10.37,2013-03-14 08:59:00,
2013-03-14 04:00:00,11.0,4.9,30.25,West,264,0.0,0.0,76,0.00,CLR,,0.00,WeatherDisplay:10.37,2013-03-14 09:00:00,
2013-03-14 04:01:00,11.0,4.9,30.25,West,264,0.0,0.0,76,0.00,CLR,,0.00,WeatherDisplay:10.37,2013-03-14 09:01:00,
2013-03-14 04:03:00,10.9,4.8,30.25,West,264,0.0,0.0,76,0.00,CLR,,0.00,WeatherDisplay:10.37,2013-03-14 09:03:00,
2013-03-14 04:04:00,11.1,5.0,30.25,West,264,0.0,0.0,76,0.00,CLR,,0.00,WeatherDisplay:10.37,2013-03-14 09:04:00,
2013-03-14 04:05:00,10.8,4.7,30.25,West,264,0.0,0.0,76,0.00,CLR,,0.00,WeatherDisplay:10.37,2013-03-14 09:05:00,
2013-03-14 04:06:00,10.8,4.7,30.25,West,264,0.0,0.0,76,0.00,CLR,,0.00,WeatherDisplay:10.37,2013-03-14 09:06:00,
2013-03-14 04:08:00,10.7,4.6,30.25,West,264,0.0,0.0,76,0.00,CLR,,0.00,WeatherDisplay:10.37,2013-03-14 09:08:00,
2013-03-14 04:09:00,10.8,4.7,30.25,West,264,0.0,0.0,76,0.00,CLR,,0.00,WeatherDisplay:10.37,2013-03-14 09:09:00,
2013-03-14 04:10:00,10.8,4.7,30.25,West,264,0.0,0.0,76,0.00,CLR,,0.00,WeatherDisplay:10.37,2013-03-14 09:10:00,
2013-03-14 04:12:00,10.8,4.7,30.25,West,264,0.0,0.0,76,0.00,CLR,,0.00,WeatherDisplay:10.37,2013-03-14 09:12:00,
2013-03-14 04:14:00,10.9,4.8,30.25,West,264,0.0,0.0,76,0.00,CLR,,0.00,WeatherDisplay:10.37,2013-03-14 09:14:00,
2013-03-14 04:15:00,10.8,4.7,30.25,West,264,0.0,0.0,76,0.00,CLR,,0.00,WeatherDisplay:10.37,2013-03-14 09:15:00,
2013-03-14 04:17:00,10.9,4.8,30.25,West,264,0.0,0.0,76,0.00,CLR,,0.00,WeatherDisplay:10.37,2013-03-14 09:17:00,
2013-03-14 04:19:00,10.7,4.6,30.24,West,264,0.0,0.0,76,0.00,CLR,,0.00,WeatherDisplay:10.37,2013-03-14 09:19:00,
2013-03-14 04:21:00,10.6,4.5,30.24,West,264,0.0,0.0,76,0.00,CLR,,0.00,WeatherDisplay:10.37,2013-03-14 09:21:00,
2013-03-14 04:22:00,10.6,4.5,30.24,West,264,0.0,0.0,76,0.00,CLR,,0.00,WeatherDisplay:10.37,2013-03-14 09:22:00,
2013-03-14 04:24:00,10.6,4.5,30.24,West,264,0.0,0.0,76,0.00,CLR,,0.00,WeatherDisplay:10.37,2013-03-14 09:24:00,
2013-03-14 04:25:00,10.6,4.5,30.24,West,264,0.0,0.0,76,0.00,CLR,,0.00,WeatherDisplay:10.37,2013-03-14 09:25:00,
2013-03-14 04:26:00,10.7,4.6,30.24,West,264,0.0,0.0,76,0.00,CLR,,0.00,WeatherDisplay:10.37,2013-03-14 09:26:00,
2013-03-14 04:27:00,10.6,4.5,30.24,West,264,0.0,0.0,76,0.00,CLR,,0.00,WeatherDisplay:10.37,2013-03-14 09:27:00,
2013-03-14 04:29:00,10.6,4.5,30.24,West,264,0.0,0.0,76,0.00,CLR,,0.00,WeatherDisplay:10.37,2013-03-14 09:29:00,
2013-03-14 04:30:00,10.3,4.2,30.24,West,264,0.0,0.0,76,0.00,CLR,,0.00,WeatherDisplay:10.37,2013-03-14 09:30:00,
2013-03-14 04:31:00,10.5,4.4,30.24,West,264,0.0,0.0,76,0.00,CLR,,0.00,WeatherDisplay:10.37,2013-03-14 09:31:00,
2013-03-14 04:32:00,10.5,4.4,30.24,West,264,0.0,0.0,76,0.00,CLR,,0.00,WeatherDisplay:10.37,2013-03-14 09:32:00,
2013-03-14 04:35:00,10.3,4.2,30.24,West,264,0.0,0.0,76,0.00,CLR,,0.00,WeatherDisplay:10.37,2013-03-14 09:35:00,
2013-03-14 04:36:00,10.2,4.1,30.24,West,264,0.0,0.0,76,0.00,CLR,,0.00,WeatherDisplay:10.37,2013-03-14 09:36:00,
2013-03-14 04:38:00,10.2,4.1,30.24,West,264,0.0,0.0,76,0.00,CLR,,0.00,WeatherDisplay:10.37,2013-03-14 09:38:00,
2013-03-14 04:40:00,10.1,4.0,30.24,West,264,0.0,0.0,76,0.00,CLR,,0.00,WeatherDisplay:10.37,2013-03-14 09:40:00,
2013-03-14 04:41:00,10.2,4.1,30.24,West,264,0.0,0.0,76,0.00,CLR,,0.00,WeatherDisplay:10.37,2013-03-14 09:41:00,
2013-03-14 04:43:00,10.1,4.3,30.24,West,264,0.0,0.0,77,0.00,CLR,,0.00,WeatherDisplay:10.37,2013-03-14 09:43:00,
2013-03-14 04:45:00,10.1,4.3,30.24,West,264,0.0,0.0,77,0.00,CLR,,0.00,WeatherDisplay:10.37,2013-03-14 09:45:00,
2013-03-14 04:46:00,10.0,4.2,30.24,West,264,0.0,0.0,77,0.00,CLR,,0.00,WeatherDisplay:10.37,2013-03-14 09:46:00,
2013-03-14 04:47:00,10.1,4.3,30.24,West,264,0.0,0.0,77,0.00,CLR,,0.00,WeatherDisplay:10.37,2013-03-14 09:47:00,
2013-03-14 04:48:00,10.0,4.2,30.24,West,264,0.0,0.0,77,0.00,CLR,,0.00,WeatherDisplay:10.37,2013-03-14 09:48:00,
2013-03-14 04:50:00,10.0,4.2,30.24,West,264,0.0,0.0,77,0.00,CLR,,0.00,WeatherDisplay:10.37,2013-03-14 09:50:00,
2013-03-14 04:51:00,10.0,4.2,30.24,West,264,0.0,0.0,77,0.00,CLR,,0.00,WeatherDisplay:10.37,2013-03-14 09:51:00,
2013-03-14 04:52:00,10.1,4.3,30.24,West,264,0.0,0.0,77,0.00,CLR,,0.00,WeatherDisplay:10.37,2013-03-14 09:52:00,
2013-03-14 04:53:00,10.1,4.3,30.24,West,264,0.0,0.0,77,0.00,CLR,,0.00,WeatherDisplay:10.37,2013-03-14 09:53:00,
2013-03-14 04:55:00,9.9,4.1,30.24,West,264,0.0,0.0,77,0.00,CLR,,0.00,WeatherDisplay:10.37,2013-03-14 09:55:00,
2013-03-14 04:57:00,10.0,4.2,30.24,West,264,0.0,0.0,77,0.00,CLR,,0.00,WeatherDisplay:10.37,2013-03-14 09:57:00,
2013-03-14 04:58:00,10.0,4.5,30.24,West,264,0.0,0.0,78,0.00,CLR,,0.00,WeatherDisplay:10.37,2013-03-14 09:58:00,
2013-03-14 05:00:00,10.1,4.6,30.24,West,264,0.0,0.0,78,0.00,CLR,,0.00,WeatherDisplay:10.37,2013-03-14 10:00:00,
2013-03-14 05:02:00,9.9,4.1,30.24,West,264,0.0,0.0,77,0.00,CLR,,0.00,WeatherDisplay:10.37,2013-03-14 10:02:00,
2013-03-14 05:03:00,10.0,4.2,30.24,West,264,0.0,0.0,77,0.00,CLR,,0.00,WeatherDisplay:10.37,2013-03-14 10:03:00,
2013-03-14 05:05:00,9.8,4.3,30.24,West,264,0.0,0.0,78,0.00,CLR,,0.00,WeatherDisplay:10.37,2013-03-14 10:05:00,
2013-03-14 05:08:00,9.8,4.3,30.24,West,264,0.0,0.0,78,0.00,CLR,,0.00,WeatherDisplay:10.37,2013-03-14 10:08:00,
2013-03-14 05:10:00,9.8,4.3,30.24,West,264,0.0,0.0,78,0.00,CLR,,0.00,WeatherDisplay:10.37,2013-03-14 10:10:00,
2013-03-14 05:13:00,9.8,4.3,30.24,West,264,0.0,0.0,78,0.00,CLR,,0.00,WeatherDisplay:10.37,2013-03-14 10:13:00,
2013-03-14 05:15:00,9.7,4.2,30.24,West,264,0.0,0.0,78,0.00,CLR,,0.00,WeatherDisplay:10.37,2013-03-14 10:15:00,
2013-03-14 05:18:00,9.6,4.1,30.24,West,264,0.0,0.0,78,0.00,CLR,,0.00,WeatherDisplay:10.37,2013-03-14 10:18:00,
2013-03-14 05:20:00,9.7,4.2,30.24,West,264,0.0,0.0,78,0.00,CLR,,0.00,WeatherDisplay:10.37,2013-03-14 10:20:00,
2013-03-14 05:23:00,9.7,4.2,30.24,West,264,0.0,0.0,78,0.00,CLR,,0.00,WeatherDisplay:10.37,2013-03-14 10:23:00,
2013-03-14 05:27:00,9.6,4.1,30.24,West,264,0.0,0.0,78,0.00,CLR,,0.00,WeatherDisplay:10.37,2013-03-14 10:27:00,
2013-03-14 05:28:00,9.6,4.1,30.24,West,264,0.0,0.0,78,0.00,CLR,,0.00,WeatherDisplay:10.37,2013-03-14 10:28:00,
2013-03-14 05:29:00,9.7,4.2,30.24,West,264,0.0,0.0,78,0.00,CLR,,0.00,WeatherDisplay:10.37,2013-03-14 10:29:00,
2013-03-14 05:32:00,9.6,4.1,30.24,West,264,0.0,0.0,78,0.00,CLR,,0.00,WeatherDisplay:10.37,2013-03-14 10:32:00,
2013-03-14 05:33:00,9.5,4.0,30.24,West,264,0.0,0.0,78,0.00,CLR,,0.00,WeatherDisplay:10.37,2013-03-14 10:33:00,
2013-03-14 05:34:00,9.6,4.1,30.24,West,264,0.0,0.0,78,0.00,CLR,,0.00,WeatherDisplay:10.37,2013-03-14 10:34:00,
2013-03-14 05:37:00,9.5,4.0,30.24,West,264,0.0,0.0,78,0.00,CLR,,0.00,WeatherDisplay:10.37,2013-03-14 10:37:00,
2013-03-14 05:38:00,9.6,4.1,30.24,West,264,0.0,0.0,78,0.00,CLR,,0.00,WeatherDisplay:10.37,2013-03-14 10:38:00,
2013-03-14 05:39:00,9.4,3.9,30.24,West,264,0.0,0.0,78,0.00,CLR,,0.00,WeatherDisplay:10.37,2013-03-14 10:39:00,
2013-03-14 05:43:00,9.5,4.0,30.24,West,264,0.0,0.0,78,0.00,CLR,,0.00,WeatherDisplay:10.37,2013-03-14 10:43:00,
2013-03-14 05:44:00,9.6,4.1,30.24,West,264,0.0,0.0,78,0.00,CLR,,0.00,WeatherDisplay:10.37,2013-03-14 10:44:00,
2013-03-14 05:48:00,9.4,3.9,30.24,West,264,0.0,0.0,78,0.00,CLR,,0.00,WeatherDisplay:10.37,2013-03-14 10:48:00,
2013-03-14 05:49:00,9.3,3.8,30.24,West,264,0.0,0.0,78,0.00,CLR,,0.00,WeatherDisplay:10.37,2013-03-14 10:49:00,
2013-03-14 05:53:00,9.3,3.8,30.24,West,264,0.0,0.0,78,0.00,CLR,,0.00,WeatherDisplay:10.37,2013-03-14 10:53:00,
2013-03-14 05:54:00,9.5,4.0,30.24,West,264,0.0,0.0,78,0.00,CLR,,0.00,WeatherDisplay:10.37,2013-03-14 10:54:00,
2013-03-14 05:58:00,9.3,3.8,30.24,West,264,0.0,0.0,78,0.00,CLR,,0.00,WeatherDisplay:10.37,2013-03-14 10:58:00,
2013-03-14 05:59:00,9.3,4.1,30.24,West,264,0.0,0.0,79,0.00,CLR,,0.00,WeatherDisplay:10.37,2013-03-14 10:59:00,
2013-03-14 06:03:00,9.4,4.2,30.24,West,264,0.0,0.0,79,0.00,CLR,,0.00,WeatherDisplay:10.37,2013-03-14 11:03:00,
2013-03-14 06:04:00,9.3,4.1,30.24,West,264,0.0,0.0,79,0.00,CLR,,0.00,WeatherDisplay:10.37,2013-03-14 11:04:00,
2013-03-14 06:05:00,9.3,4.1,30.24,West,264,0.0,0.0,79,0.00,CLR,,0.00,WeatherDisplay:10.37,2013-03-14 11:05:00,
2013-03-14 06:09:00,9.4,4.2,30.24,West,264,0.0,0.0,79,0.00,CLR,,0.00,WeatherDisplay:10.37,2013-03-14 11:09:00,
2013-03-14 06:10:00,9.5,4.3,30.24,West,264,0.0,0.0,79,0.00,CLR,,0.00,WeatherDisplay:10.37,2013-03-14 11:10:00,
2013-03-14 06:14:00,9.3,4.1,30.24,West,264,0.0,0.0,79,0.00,CLR,,0.00,WeatherDisplay:10.37,2013-03-14 11:14:00,
2013-03-14 06:15:00,9.4,4.2,30.24,West,264,0.0,0.0,79,0.00,CLR,,0.00,WeatherDisplay:10.37,2013-03-14 11:15:00,
2013-03-14 06:19:00,9.6,4.4,30.24,West,264,0.0,0.0,79,0.00,CLR,,0.00,WeatherDisplay:10.37,2013-03-14 11:19:00,
2013-03-14 06:20:00,9.6,4.4,30.24,West,264,0.0,0.0,79,0.00,CLR,,0.00,WeatherDisplay:10.37,2013-03-14 11:20:00,
2013-03-14 06:24:00,9.7,4.8,30.24,West,264,0.0,0.0,80,0.00,CLR,,0.00,WeatherDisplay:10.37,2013-03-14 11:24:00,
2013-03-14 06:25:00,9.6,4.7,30.24,West,264,0.0,0.0,80,0.00,CLR,,0.00,WeatherDisplay:10.37,2013-03-14 11:25:00,
2013-03-14 06:29:00,9.7,4.8,30.23,West,264,0.0,0.0,80,0.00,CLR,,0.00,WeatherDisplay:10.37,2013-03-14 11:29:00,
2013-03-14 06:30:00,9.9,5.0,30.23,West,264,0.0,0.0,80,0.00,CLR,,0.00,WeatherDisplay:10.37,2013-03-14 11:30:00,
2013-03-14 06:33:00,10.0,5.1,30.24,West,264,0.0,0.0,80,0.00,CLR,,0.00,WeatherDisplay:10.37,2013-03-14 11:33:00,
2013-03-14 06:34:00,10.0,5.1,30.24,West,264,0.0,0.0,80,0.00,CLR,,0.00,WeatherDisplay:10.37,2013-03-14 11:34:00,
2013-03-14 06:35:00,9.9,5.0,30.23,West,264,0.0,0.0,80,0.00,CLR,,0.00,WeatherDisplay:10.37,2013-03-14 11:35:00,
2013-03-14 06:38:00,10.2,5.3,30.24,West,264,0.0,0.0,80,0.00,CLR,,0.00,WeatherDisplay:10.37,2013-03-14 11:38:00,
2013-03-14 06:39:00,10.1,5.2,30.24,West,264,0.0,0.0,80,0.00,CLR,,0.00,WeatherDisplay:10.37,2013-03-14 11:39:00,
2013-03-14 06:40:00,10.3,5.4,30.24,West,264,0.0,0.0,80,0.00,CLR,,0.00,WeatherDisplay:10.37,2013-03-14 11:40:00,
2013-03-14 06:43:00,10.3,5.4,30.24,West,264,0.0,0.0,80,0.00,CLR,,0.00,WeatherDisplay:10.37,2013-03-14 11:43:00,
2013-03-14 06:44:00,10.5,5.5,30.24,West,264,0.0,0.0,80,0.00,CLR,,0.00,WeatherDisplay:10.37,2013-03-14 11:44:00,
2013-03-14 06:45:00,10.4,5.5,30.24,West,264,0.0,0.0,80,0.00,CLR,,0.00,WeatherDisplay:10.37,2013-03-14 11:45:00,
2013-03-14 06:48:00,10.5,5.8,30.24,West,264,0.0,0.0,81,0.00,CLR,,0.00,WeatherDisplay:10.37,2013-03-14 11:48:00,
2013-03-14 06:49:00,10.6,5.9,30.24,West,264,0.0,0.0,81,0.00,CLR,,0.00,WeatherDisplay:10.37,2013-03-14 11:49:00,
2013-03-14 06:50:00,10.7,6.0,30.24,West,264,0.0,0.0,81,0.00,CLR,,0.00,WeatherDisplay:10.37,2013-03-14 11:50:00,
2013-03-14 06:51:00,10.6,5.9,30.24,West,264,0.0,0.0,81,0.00,CLR,,0.00,WeatherDisplay:10.37,2013-03-14 11:51:00,
2013-03-14 06:53:00,10.7,6.0,30.24,West,264,0.0,0.0,81,0.00,CLR,,0.00,WeatherDisplay:10.37,2013-03-14 11:53:00,
2013-03-14 06:55:00,10.8,6.1,30.24,West,264,0.0,0.0,81,0.00,CLR,,0.00,WeatherDisplay:10.37,2013-03-14 11:55:00,
2013-03-14 06:56:00,10.7,6.0,30.24,West,264,0.0,0.0,81,0.00,CLR,,0.00,WeatherDisplay:10.37,2013-03-14 11:56:00,
2013-03-14 06:58:00,10.9,6.2,30.24,West,264,0.0,0.0,81,0.00,CLR,,0.00,WeatherDisplay:10.37,2013-03-14 11:58:00,
2013-03-14 07:00:00,11.0,6.3,30.24,West,264,0.0,0.0,81,0.00,CLR,,0.00,WeatherDisplay:10.37,2013-03-14 12:00:00,
2013-03-14 07:01:00,10.9,6.2,30.24,West,264,0.0,0.0,81,0.00,CLR,,0.00,WeatherDisplay:10.37,2013-03-14 12:01:00,
2013-03-14 07:03:00,11.0,6.3,30.24,West,264,0.0,0.0,81,0.00,CLR,,0.00,WeatherDisplay:10.37,2013-03-14 12:03:00,
2013-03-14 07:05:00,11.0,6.3,30.24,West,264,0.0,0.0,81,0.00,CLR,,0.00,WeatherDisplay:10.37,2013-03-14 12:05:00,
2013-03-14 07:06:00,11.1,6.4,30.24,West,264,0.0,0.0,81,0.00,CLR,,0.00,WeatherDisplay:10.37,2013-03-14 12:06:00,
2013-03-14 07:08:00,11.1,6.4,30.24,West,264,0.0,0.0,81,0.00,CLR,,0.00,WeatherDisplay:10.37,2013-03-14 12:08:00,
2013-03-14 07:10:00,11.2,6.5,30.24,West,264,0.0,0.0,81,0.00,CLR,,0.00,WeatherDisplay:10.37,2013-03-14 12:10:00,
2013-03-14 07:11:00,11.3,6.6,30.24,West,264,0.0,0.0,81,0.00,CLR,,0.00,WeatherDisplay:10.37,2013-03-14 12:11:00,
2013-03-14 07:13:00,11.4,6.7,30.24,West,264,0.0,0.0,81,0.00,CLR,,0.00,WeatherDisplay:10.37,2013-03-14 12:13:00,
2013-03-14 07:15:00,11.5,6.8,30.24,West,264,0.0,0.0,81,0.00,CLR,,0.00,WeatherDisplay:10.37,2013-03-14 12:15:00,
2013-03-14 07:17:00,11.4,6.7,30.24,West,264,0.0,0.0,81,0.00,CLR,,0.00,WeatherDisplay:10.37,2013-03-14 12:17:00,
2013-03-14 07:18:00,11.6,6.9,30.24,West,264,0.0,0.0,81,0.00,CLR,,0.00,WeatherDisplay:10.37,2013-03-14 12:18:00,
2013-03-14 07:20:00,11.6,6.9,30.24,West,264,0.0,0.0,81,0.00,CLR,,0.00,WeatherDisplay:10.37,2013-03-14 12:20:00,
2013-03-14 07:22:00,11.6,6.9,30.24,West,264,0.0,0.0,81,0.00,CLR,,0.00,WeatherDisplay:10.37,2013-03-14 12:22:00,
2013-03-14 07:24:00,11.6,6.9,30.24,West,264,0.0,0.0,81,0.00,CLR,,0.00,WeatherDisplay:10.37,2013-03-14 12:24:00,
2013-03-14 07:25:00,11.6,6.9,30.23,West,264,0.0,0.0,81,0.00,CLR,,0.00,WeatherDisplay:10.37,2013-03-14 12:25:00,
2013-03-14 07:27:00,11.8,7.1,30.24,West,264,0.0,0.0,81,0.00,CLR,,0.00,WeatherDisplay:10.37,2013-03-14 12:27:00,
2013-03-14 07:29:00,11.9,7.2,30.23,West,264,0.0,0.0,81,0.00,CLR,,0.00,WeatherDisplay:10.37,2013-03-14 12:29:00,
2013-03-14 07:30:00,12.1,7.4,30.23,West,264,0.0,0.0,81,0.00,CLR,,0.00,WeatherDisplay:10.37,2013-03-14 12:30:00,
2013-03-14 07:33:00,12.2,7.5,30.23,West,264,0.0,0.0,81,0.00,CLR,,0.00,WeatherDisplay:10.37,2013-03-14 12:33:00,
2013-03-14 07:34:00,12.1,7.4,30.23,West,264,0.0,0.0,81,0.00,CLR,,0.00,WeatherDisplay:10.37,2013-03-14 12:34:00,
2013-03-14 07:35:00,12.3,7.6,30.23,West,264,0.0,0.0,81,0.00,CLR,,0.00,WeatherDisplay:10.37,2013-03-14 12:35:00,
2013-03-14 07:38:00,12.4,8.0,30.23,West,264,0.0,0.0,82,0.00,CLR,,0.00,WeatherDisplay:10.37,2013-03-14 12:38:00,
2013-03-14 07:39:00,12.6,8.1,30.23,West,264,0.0,0.0,82,0.00,CLR,,0.00,WeatherDisplay:10.37,2013-03-14 12:39:00,
2013-03-14 07:40:00,12.7,8.2,30.23,West,264,0.0,0.0,82,0.00,CLR,,0.00,WeatherDisplay:10.37,2013-03-14 12:40:00,
2013-03-14 07:43:00,13.1,8.6,30.23,West,264,0.0,0.0,82,0.00,CLR,,0.00,WeatherDisplay:10.37,2013-03-14 12:43:00,
2013-03-14 07:44:00,13.1,8.6,30.23,West,264,0.0,0.0,82,0.00,CLR,,0.00,WeatherDisplay:10.37,2013-03-14 12:44:00,
2013-03-14 07:46:00,13.4,8.9,30.23,West,264,0.0,0.0,82,0.00,CLR,,0.00,WeatherDisplay:10.37,2013-03-14 12:46:00,
2013-03-14 07:48:00,13.6,9.1,30.23,West,264,0.0,0.0,82,0.00,CLR,,0.00,WeatherDisplay:10.37,2013-03-14 12:48:00,
2013-03-14 07:49:00,13.6,9.1,30.23,West,264,0.0,0.0,82,0.00,CLR,,0.00,WeatherDisplay:10.37,2013-03-14 12:49:00,
2013-03-14 07:52:00,14.0,9.5,30.23,West,264,0.0,0.0,82,0.00,CLR,,0.00,WeatherDisplay:10.37,2013-03-14 12:52:00,
2013-03-14 07:53:00,14.2,9.7,30.23,West,264,0.0,0.0,82,0.00,CLR,,0.00,WeatherDisplay:10.37,2013-03-14 12:53:00,
2013-03-14 07:54:00,14.3,9.8,30.23,West,264,0.0,0.0,82,0.00,CLR,,0.00,WeatherDisplay:10.37,2013-03-14 12:54:00,
2013-03-14 07:55:00,14.3,9.8,30.23,West,264,0.0,0.0,82,0.00,CLR,,0.00,WeatherDisplay:10.37,2013-03-14 12:55:00,
2013-03-14 07:57:00,14.8,10.3,30.23,West,264,0.0,0.0,82,0.00,CLR,,0.00,WeatherDisplay:10.37,2013-03-14 12:57:00,
2013-03-14 07:59:00,15.0,10.5,30.23,West,264,0.0,0.0,82,0.00,CLR,,0.00,WeatherDisplay:10.37,2013-03-14 12:59:00,
2013-03-14 08:00:00,15.0,10.5,30.23,West,264,0.0,0.0,82,0.00,CLR,,0.00,WeatherDisplay:10.37,2013-03-14 13:00:00,
2013-03-14 08:02:00,15.5,11.0,30.23,West,264,0.0,0.0,82,0.00,CLR,,0.00,WeatherDisplay:10.37,2013-03-14 13:02:00,
2013-03-14 08:04:00,15.8,11.3,30.22,West,264,0.0,0.0,82,0.00,CLR,,0.00,WeatherDisplay:10.37,2013-03-14 13:04:00,
2013-03-14 08:05:00,15.8,11.3,30.22,West,264,0.0,0.0,82,0.00,CLR,,0.00,WeatherDisplay:10.37,2013-03-14 13:05:00,
2013-03-14 08:07:00,16.2,11.7,30.22,West,264,0.0,0.0,82,0.00,CLR,,0.00,WeatherDisplay:10.37,2013-03-14 13:07:00,
2013-03-14 08:09:00,16.3,11.8,30.22,West,264,0.0,0.0,82,0.00,CLR,,0.00,WeatherDisplay:10.37,2013-03-14 13:09:00,
2013-03-14 08:10:00,16.5,12.0,30.22,West,264,0.0,0.0,82,0.00,CLR,,0.00,WeatherDisplay:10.37,2013-03-14 13:10:00,
2013-03-14 08:12:00,16.9,12.4,30.22,West,264,0.0,0.0,82,0.00,CLR,,0.00,WeatherDisplay:10.37,2013-03-14 13:12:00,
2013-03-14 08:14:00,17.1,12.6,30.22,SE,144,1.8,2.3,82,0.00,CLR,,0.00,WeatherDisplay:10.37,2013-03-14 13:14:00,
2013-03-14 08:15:00,17.2,12.6,30.22,SE,145,1.8,2.3,82,0.00,CLR,,0.00,WeatherDisplay:10.37,2013-03-14 13:15:00,
2013-03-14 08:18:00,17.5,12.9,30.22,SSW,206,0.9,2.3,82,0.00,CLR,,0.00,WeatherDisplay:10.37,2013-03-14 13:18:00,
2013-03-14 08:19:00,17.6,12.8,30.22,WNW,282,0.5,1.1,81,0.00,CLR,,0.00,WeatherDisplay:10.37,2013-03-14 13:19:00,
2013-03-14 08:20:00,17.4,12.6,30.22,WNW,282,0.0,1.1,81,0.00,CLR,,0.00,WeatherDisplay:10.37,2013-03-14 13:20:00,
2013-03-14 08:22:00,17.8,13.0,30.22,WNW,282,0.0,0.0,81,0.00,CLR,,0.00,WeatherDisplay:10.37,2013-03-14 13:22:00,
2013-03-14 08:23:00,17.9,13.1,30.22,NW,320,0.0,0.3,81,0.00,CLR,,0.00,WeatherDisplay:10.37,2013-03-14 13:23:00,
2013-03-14 08:24:00,18.0,13.2,30.22,WNW,291,1.7,2.3,81,0.00,CLR,,0.00,WeatherDisplay:10.37,2013-03-14 13:24:00,
2013-03-14 08:25:00,18.1,13.3,30.22,WNW,288,1.7,2.3,81,0.00,CLR,,0.00,WeatherDisplay:10.37,2013-03-14 13:25:00,
2013-03-14 08:27:00,18.1,13.0,30.22,SSW,195,1.6,2.3,80,0.00,CLR,,0.00,WeatherDisplay:10.37,2013-03-14 13:27:00,
2013-03-14 08:28:00,18.3,13.2,30.22,SSW,198,0.3,2.3,80,0.00,CLR,,0.00,WeatherDisplay:10.37,2013-03-14 13:28:00,
2013-03-14 08:30:00,18.5,13.4,30.22,SW,224,0.7,2.3,80,0.00,CLR,,0.00,WeatherDisplay:10.37,2013-03-14 13:30:00,
2013-03-14 08:31:00,18.5,13.4,30.22,SW,224,0.5,2.3,80,0.00,CLR,,0.00,WeatherDisplay:10.37,2013-03-14 13:31:00,
2013-03-14 08:32:00,18.6,13.5,30.22,SW,216,1.5,3.5,80,0.00,CLR,,0.00,WeatherDisplay:10.37,2013-03-14 13:32:00,
2013-03-14 08:33:00,18.6,13.5,30.22,SW,232,2.5,3.5,80,0.00,CLR,,0.00,WeatherDisplay:10.37,2013-03-14 13:33:00,
2013-03-14 08:35:00,18.9,13.5,30.22,WSW,240,3.2,3.5,79,0.00,CLR,,0.00,WeatherDisplay:10.37,2013-03-14 13:35:00,
2013-03-14 08:36:00,18.9,13.5,30.22,SSW,213,3.1,3.5,79,0.00,CLR,,0.00,WeatherDisplay:10.37,2013-03-14 13:36:00,
2013-03-14 08:37:00,19.0,13.6,30.22,SW,222,2.4,4.6,79,0.00,CLR,,0.00,WeatherDisplay:10.37,2013-03-14 13:37:00,
2013-03-14 08:38:00,19.1,13.7,30.22,SSW,213,1.9,3.5,79,0.00,CLR,,0.00,WeatherDisplay:10.37,2013-03-14 13:38:00,
2013-03-14 08:40:00,19.2,13.8,30.22,SW,220,1.6,2.8,79,0.00,CLR,,0.00,WeatherDisplay:10.37,2013-03-14 13:40:00,
2013-03-14 08:41:00,19.2,13.8,30.22,SW,229,2.0,3.4,79,0.00,CLR,,0.00,WeatherDisplay:10.37,2013-03-14 13:41:00,
2013-03-14 08:43:00,19.5,14.0,30.22,SW,232,1.7,3.5,79,0.00,CLR,,0.00,WeatherDisplay:10.37,2013-03-14 13:43:00,
2013-03-14 08:45:00,19.9,14.1,30.22,SW,230,1.7,2.3,78,0.00,CLR,,0.00,WeatherDisplay:10.37,2013-03-14 13:45:00,
2013-03-14 08:46:00,19.9,14.1,30.22,SW,223,2.0,2.9,78,0.00,CLR,,0.00,WeatherDisplay:10.37,2013-03-14 13:46:00,
2013-03-14 08:48:00,20.1,14.3,30.22,SW,226,1.7,3.0,78,0.00,CLR,,0.00,WeatherDisplay:10.37,2013-03-14 13:48:00,
2013-03-14 08:50:00,20.5,14.4,30.22,WSW,241,1.7,3.5,77,0.00,CLR,,0.00,WeatherDisplay:10.37,2013-03-14 13:50:00,
2013-03-14 08:51:00,20.6,14.5,30.22,SW,222,2.3,3.5,77,0.00,CLR,,0.00,WeatherDisplay:10.37,2013-03-14 13:51:00,
2013-03-14 08:53:00,20.8,14.7,30.22,WSW,244,2.5,4.6,77,0.00,CLR,,0.00,WeatherDisplay:10.37,2013-03-14 13:53:00,
2013-03-14 08:54:00,20.8,14.4,30.22,West,260,3.4,4.6,76,0.00,CLR,,0.00,WeatherDisplay:10.37,2013-03-14 13:54:00,
2013-03-14 08:57:00,21.0,14.3,30.22,SW,234,4.0,4.6,75,0.00,CLR,,0.00,WeatherDisplay:10.37,2013-03-14 13:57:00,
2013-03-14 08:58:00,21.3,14.6,30.22,WSW,240,3.6,6.3,75,0.00,CLR,,0.00,WeatherDisplay:10.37,2013-03-14 13:58:00,
2013-03-14 08:59:00,21.4,14.7,30.22,WSW,254,3.7,5.8,75,0.00,CLR,,0.00,WeatherDisplay:10.37,2013-03-14 13:59:00,
2013-03-14 09:02:00,21.5,14.5,30.23,WNW,296,3.6,6.9,74,0.00,CLR,,0.00,WeatherDisplay:10.37,2013-03-14 14:02:00,
2013-03-14 09:03:00,21.7,14.7,30.23,West,278,3.1,5.8,74,0.00,CLR,,0.00,WeatherDisplay:10.37,2013-03-14 14:03:00,
2013-03-14 09:04:00,21.8,14.8,30.23,WSW,253,2.1,4.6,74,0.00,CLR,,0.00,WeatherDisplay:10.37,2013-03-14 14:04:00,
2013-03-14 09:07:00,22.0,15.0,30.22,WSW,244,3.8,4.6,74,0.00,CLR,,0.00,WeatherDisplay:10.37,2013-03-14 14:07:00,
2013-03-14 09:08:00,22.2,15.2,30.23,SW,233,2.2,4.6,74,0.00,CLR,,0.00,WeatherDisplay:10.37,2013-03-14 14:08:00,
2013-03-14 09:09:00,22.2,15.2,30.22,SW,230,1.4,3.5,74,0.00,CLR,,0.00,WeatherDisplay:10.37,2013-03-14 14:09:00,
2013-03-14 09:12:00,22.4,15.1,30.22,WSW,240,2.5,3.5,73,0.00,CLR,,0.00,WeatherDisplay:10.37,2013-03-14 14:12:00,
2013-03-14 09:13:00,22.6,15.2,30.22,WSW,244,2.2,2.4,73,0.00,CLR,,0.00,WeatherDisplay:10.37,2013-03-14 14:13:00,
2013-03-14 09:14:00,22.7,15.3,30.23,WSW,240,2.5,3.5,73,0.00,CLR,,0.00,WeatherDisplay:10.37,2013-03-14 14:14:00,
2013-03-14 09:17:00,22.8,15.4,30.22,SW,223,1.6,3.5,73,0.00,CLR,,0.00,WeatherDisplay:10.37,2013-03-14 14:17:00,
2013-03-14 09:18:00,22.8,15.1,30.22,SSW,213,1.6,2.3,72,0.00,CLR,,0.00,WeatherDisplay:10.37,2013-03-14 14:18:00,
2013-03-14 09:19:00,22.9,15.2,30.22,SSW,192,0.8,2.3,72,0.00,CLR,,0.00,WeatherDisplay:10.37,2013-03-14 14:19:00,
2013-03-14 09:22:00,23.2,15.5,30.22,WSW,247,1.3,2.3,72,0.00,CLR,,0.00,WeatherDisplay:10.37,2013-03-14 14:22:00,
2013-03-14 09:23:00,23.3,15.6,30.22,SW,222,1.1,2.3,72,0.00,CLR,,0.00,WeatherDisplay:10.37,2013-03-14 14:23:00,
2013-03-14 09:24:00,23.3,15.6,30.22,South,179,0.4,2.3,72,0.00,CLR,,0.00,WeatherDisplay:10.37,2013-03-14 14:24:00,
2013-03-14 09:27:00,23.7,15.7,30.22,SSW,205,1.8,2.3,71,0.00,CLR,,0.00,WeatherDisplay:10.37,2013-03-14 14:27:00,
2013-03-14 09:28:00,23.8,15.8,30.22,South,184,0.7,2.3,71,0.00,CLR,,0.00,WeatherDisplay:10.37,2013-03-14 14:28:00,
2013-03-14 09:29:00,23.8,15.8,30.22,South,184,0.0,0.0,71,0.00,CLR,,0.00,WeatherDisplay:10.37,2013-03-14 14:29:00,
2013-03-14 09:32:00,24.0,16.0,30.22,ESE,110,0.5,0.0,71,0.00,CLR,,0.00,WeatherDisplay:10.37,2013-03-14 14:32:00,
2013-03-14 09:33:00,24.1,16.1,30.22,SSE,158,0.6,1.1,71,0.00,CLR,,0.00,WeatherDisplay:10.37,2013-03-14 14:33:00,
2013-03-14 09:34:00,24.2,16.1,30.22,SSE,158,0.3,1.1,71,0.00,CLR,,0.00,WeatherDisplay:10.37,2013-03-14 14:34:00,
2013-03-14 09:35:00,24.2,15.8,30.22,SSE,158,0.0,0.0,70,0.00,CLR,,0.00,WeatherDisplay:10.37,2013-03-14 14:35:00,
2013-03-14 09:38:00,24.6,16.2,30.22,SE,133,0.5,0.0,70,0.00,CLR,,0.00,WeatherDisplay:10.37,2013-03-14 14:38:00,
2013-03-14 09:39:00,24.7,16.3,30.22,SSE,152,0.6,3.3,70,0.00,CLR,,0.00,WeatherDisplay:10.37,2013-03-14 14:39:00,
2013-03-14 09:40:00,24.6,16.2,30.22,SSE,152,1.2,3.5,70,0.00,CLR,,0.00,WeatherDisplay:10.37,2013-03-14 14:40:00,
2013-03-14 09:43:00,24.9,16.2,30.22,SSE,152,0.0,0.0,69,0.00,CLR,,0.00,WeatherDisplay:10.37,2013-03-14 14:43:00,
2013-03-14 09:44:00,25.1,16.4,30.22,SSE,152,0.0,0.0,69,0.00,CLR,,0.00,WeatherDisplay:10.37,2013-03-14 14:44:00,
2013-03-14 09:45:00,25.2,16.5,30.22,SSE,152,0.0,0.0,69,0.00,CLR,,0.00,WeatherDisplay:10.37,2013-03-14 14:45:00,
2013-03-14 09:48:00,25.5,16.4,30.22,SSW,202,2.2,4.4,68,0.00,CLR,,0.00,WeatherDisplay:10.37,2013-03-14 14:48:00,
2013-03-14 09:49:00,25.5,16.4,30.22,SSW,192,3.0,4.6,68,0.00,CLR,,0.00,WeatherDisplay:10.37,2013-03-14 14:49:00,
2013-03-14 09:50:00,25.8,16.7,30.22,SW,229,2.6,4.6,68,0.00,CLR,,0.00,WeatherDisplay:10.37,2013-03-14 14:50:00,
2013-03-14 09:53:00,26.0,16.5,30.22,SW,236,2.0,3.5,67,0.00,CLR,,0.00,WeatherDisplay:10.37,2013-03-14 14:53:00,
2013-03-14 09:54:00,26.1,16.6,30.22,SE,141,2.3,3.5,67,0.00,CLR,,0.00,WeatherDisplay:10.37,2013-03-14 14:54:00,
2013-03-14 09:55:00,26.2,16.7,30.22,SE,141,0.1,1.1,67,0.00,CLR,,0.00,WeatherDisplay:10.37,2013-03-14 14:55:00,
2013-03-14 09:59:00,26.3,16.8,30.22,SSW,203,0.7,2.3,67,0.00,CLR,,0.00,WeatherDisplay:10.37,2013-03-14 14:59:00,
2013-03-14 10:00:00,26.4,16.9,30.22,SW,219,2.2,3.5,67,0.00,CLR,,0.00,WeatherDisplay:10.37,2013-03-14 15:00:00,
2013-03-14 10:04:00,26.4,16.6,30.22,SSW,202,0.0,0.0,66,0.00,CLR,,0.00,WeatherDisplay:10.37,2013-03-14 15:04:00,
2013-03-14 10:05:00,26.5,16.7,30.22,SSW,202,0.0,0.0,66,0.00,CLR,,0.00,WeatherDisplay:10.37,2013-03-14 15:05:00,
2013-03-14 10:09:00,26.7,16.9,30.22,SW,224,0.7,2.0,66,0.00,CLR,,0.00,WeatherDisplay:10.37,2013-03-14 15:09:00,
2013-03-14 10:10:00,26.7,16.9,30.22,West,281,1.4,2.3,66,0.00,CLR,,0.00,WeatherDisplay:10.37,2013-03-14 15:10:00,
2013-03-14 10:11:00,26.8,16.6,30.22,SW,232,1.0,2.3,65,0.00,CLR,,0.00,WeatherDisplay:10.37,2013-03-14 15:11:00,
2013-03-14 10:14:00,26.8,16.2,30.23,WSW,246,2.2,5.8,64,0.00,CLR,,0.00,WeatherDisplay:10.37,2013-03-14 15:14:00,
2013-03-14 10:15:00,26.8,16.2,30.23,WSW,241,2.3,5.8,64,0.00,CLR,,0.00,WeatherDisplay:10.37,2013-03-14 15:15:00,
2013-03-14 10:16:00,26.8,16.2,30.22,SW,227,1.4,3.5,64,0.00,CLR,,0.00,WeatherDisplay:10.37,2013-03-14 15:16:00,
2013-03-14 10:19:00,26.9,16.3,30.23,SW,226,1.9,5.8,64,0.00,CLR,,0.00,WeatherDisplay:10.37,2013-03-14 15:19:00,
2013-03-14 10:20:00,26.9,16.3,30.23,SW,220,2.1,4.4,64,0.00,CLR,,0.00,WeatherDisplay:10.37,2013-03-14 15:20:00,
2013-03-14 10:21:00,27.0,16.4,30.23,WSW,243,1.2,4.6,64,0.00,CLR,,0.00,WeatherDisplay:10.37,2013-03-14 15:21:00,
2013-03-14 10:25:00,27.1,16.2,30.23,WSW,243,0.0,0.0,63,0.00,CLR,,0.00,WeatherDisplay:10.37,2013-03-14 15:25:00,
2013-03-14 10:26:00,27.1,16.2,30.23,SW,232,0.0,1.1,63,0.00,CLR,,0.00,WeatherDisplay:10.37,2013-03-14 15:26:00,
2013-03-14 10:30:00,27.3,16.4,30.23,SW,232,0.0,0.0,63,0.00,CLR,,0.00,WeatherDisplay:10.37,2013-03-14 15:30:00,
2013-03-14 10:32:00,27.4,16.4,30.23,SW,232,0.0,0.0,63,0.00,CLR,,0.00,WeatherDisplay:10.37,2013-03-14 15:32:00,
2013-03-14 10:35:00,27.4,16.1,30.23,SW,229,0.3,4.6,62,0.00,CLR,,0.00,WeatherDisplay:10.37,2013-03-14 15:35:00,
2013-03-14 10:37:00,27.4,16.1,30.23,WSW,251,2.1,3.5,62,0.00,CLR,,0.00,WeatherDisplay:10.37,2013-03-14 15:37:00,
2013-03-14 10:40:00,27.6,16.3,30.23,WSW,247,0.0,0.0,62,0.00,CLR,,0.00,WeatherDisplay:10.37,2013-03-14 15:40:00,
2013-03-14 10:42:00,27.6,15.9,30.23,WSW,250,1.2,3.5,61,0.00,CLR,,0.00,WeatherDisplay:10.37,2013-03-14 15:42:00,
2013-03-14 10:45:00,27.5,15.8,30.23,WSW,250,0.0,0.0,61,0.00,CLR,,0.00,WeatherDisplay:10.37,2013-03-14 15:45:00,
2013-03-14 10:47:00,27.6,16.3,30.23,WSW,250,0.0,0.0,62,0.00,CLR,,0.00,WeatherDisplay:10.37,2013-03-14 15:47:00,
2013-03-14 10:50:00,27.6,16.3,30.23,WSW,250,0.0,0.0,62,0.00,CLR,,0.00,WeatherDisplay:10.37,2013-03-14 15:50:00,
2013-03-14 10:51:00,27.7,16.4,30.23,WSW,250,0.0,0.0,62,0.00,CLR,,0.00,WeatherDisplay:10.37,2013-03-14 15:51:00,
2013-03-14 10:52:00,27.6,16.3,30.23,WSW,250,0.0,0.0,62,0.00,CLR,,0.00,WeatherDisplay:10.37,2013-03-14 15:52:00,
2013-03-14 10:55:00,27.6,16.6,30.23,WSW,250,0.0,0.0,63,0.00,CLR,,0.00,WeatherDisplay:10.37,2013-03-14 15:55:00,
2013-03-14 10:56:00,27.6,16.6,30.23,WSW,250,0.0,0.0,63,0.00,CLR,,0.00,WeatherDisplay:10.37,2013-03-14 15:56:00,
2013-03-14 10:57:00,27.6,17.0,30.23,WSW,250,0.0,0.0,64,0.00,CLR,,0.00,WeatherDisplay:10.37,2013-03-14 15:57:00,
2013-03-14 11:01:00,27.7,17.1,30.23,WSW,250,0.0,0.0,64,0.00,CLR,,0.00,WeatherDisplay:10.37,2013-03-14 16:01:00,
2013-03-14 11:02:00,27.8,17.2,30.23,WSW,250,0.0,0.0,64,0.00,CLR,,0.00,WeatherDisplay:10.37,2013-03-14 16:02:00,
2013-03-14 11:03:00,27.8,17.2,30.22,WSW,250,0.0,0.0,64,0.00,CLR,,0.00,WeatherDisplay:10.37,2013-03-14 16:03:00,
2013-03-14 11:06:00,27.8,17.6,30.23,WSW,256,2.7,5.5,65,0.00,CLR,,0.00,WeatherDisplay:10.37,2013-03-14 16:06:00,
2013-03-14 11:07:00,27.8,17.6,30.23,West,268,3.9,5.8,65,0.00,CLR,,0.00,WeatherDisplay:10.37,2013-03-14 16:07:00,
2013-03-14 11:08:00,27.8,17.6,30.23,WSW,240,3.6,5.8,65,0.00,CLR,,0.00,WeatherDisplay:10.37,2013-03-14 16:08:00,
2013-03-14 11:11:00,27.6,17.7,30.23,WSW,239,2.3,4.6,66,0.00,CLR,,0.00,WeatherDisplay:10.37,2013-03-14 16:11:00,
2013-03-14 11:12:00,27.6,18.1,30.23,SW,232,2.3,4.6,67,0.00,CLR,,0.00,WeatherDisplay:10.37,2013-03-14 16:12:00,
2013-03-14 11:13:00,27.5,18.0,30.23,SW,216,3.5,5.8,67,0.00,CLR,,0.00,WeatherDisplay:10.37,2013-03-14 16:13:00,
2013-03-14 11:16:00,27.4,18.2,30.23,West,277,3.6,5.8,68,0.00,CLR,,0.00,WeatherDisplay:10.37,2013-03-14 16:16:00,
2013-03-14 11:17:00,27.3,18.1,30.23,SW,236,3.2,4.6,68,0.00,CLR,,0.00,WeatherDisplay:10.37,2013-03-14 16:17:00,
2013-03-14 11:18:00,27.2,18.0,30.23,West,261,2.8,3.5,68,0.00,CLR,,0.00,WeatherDisplay:10.37,2013-03-14 16:18:00,
2013-03-14 11:22:00,27.1,18.3,30.23,SW,217,2.8,3.5,69,0.00,CLR,,0.00,WeatherDisplay:10.37,2013-03-14 16:22:00,
2013-03-14 11:23:00,27.2,18.4,30.23,SW,220,3.5,5.4,69,0.00,CLR,,0.00,WeatherDisplay:10.37,2013-03-14 16:23:00,
2013-03-14 11:27:00,27.4,18.9,30.22,West,274,3.1,4.6,70,0.00,CLR,,0.00,WeatherDisplay:10.37,2013-03-14 16:27:00,
2013-03-14 11:28:00,27.4,18.9,30.22,SW,234,3.2,4.6,70,0.00,CLR,,0.00,WeatherDisplay:10.37,2013-03-14 16:28:00,
2013-03-14 11:32:00,27.6,19.1,30.22,SW,220,3.5,4.6,70,0.00,CLR,,0.00,WeatherDisplay:10.37,2013-03-14 16:32:00,
2013-03-14 11:33:00,27.6,19.1,30.22,SW,220,3.3,4.6,70,0.00,CLR,,0.00,WeatherDisplay:10.37,2013-03-14 16:33:00,
2013-03-14 11:37:00,27.8,19.3,30.22,SW,226,2.5,3.5,70,0.00,CLR,,0.00,WeatherDisplay:10.37,2013-03-14 16:37:00,
2013-03-14 11:38:00,27.8,19.3,30.22,WSW,246,2.7,3.5,70,0.00,CLR,,0.00,WeatherDisplay:10.37,2013-03-14 16:38:00,
2013-03-14 11:39:00,27.9,19.4,30.22,SW,219,3.6,4.2,70,0.00,CLR,,0.00,WeatherDisplay:10.37,2013-03-14 16:39:00,
2013-03-14 11:43:00,28.1,19.9,30.22,SW,222,2.2,3.7,71,0.00,CLR,,0.00,WeatherDisplay:10.37,2013-03-14 16:43:00,
2013-03-14 11:44:00,28.3,20.1,30.22,SSW,199,3.1,4.6,71,0.00,CLR,,0.00,WeatherDisplay:10.37,2013-03-14 16:44:00,
2013-03-14 11:48:00,28.7,20.1,30.22,SSE,164,1.3,2.3,70,0.00,CLR,,0.00,WeatherDisplay:10.37,2013-03-14 16:48:00,
2013-03-14 11:49:00,28.8,20.2,30.22,SW,226,1.4,2.7,70,0.00,CLR,,0.00,WeatherDisplay:10.37,2013-03-14 16:49:00,
2013-03-14 11:53:00,29.2,20.6,30.22,SSW,208,2.8,4.6,70,0.00,CLR,,0.00,WeatherDisplay:10.37,2013-03-14 16:53:00,
2013-03-14 11:54:00,29.3,20.7,30.22,SSW,206,4.4,5.8,70,0.00,CLR,,0.00,WeatherDisplay:10.37,2013-03-14 16:54:00,
2013-03-14 11:58:00,29.5,20.6,30.22,SW,234,3.0,5.1,69,0.00,CLR,,0.00,WeatherDisplay:10.37,2013-03-14 16:58:00,
2013-03-14 11:59:00,29.6,20.7,30.22,SW,234,5.0,6.4,69,0.00,CLR,,0.00,WeatherDisplay:10.37,2013-03-14 16:59:00,
2013-03-14 12:03:00,29.5,20.2,30.22,SSW,208,3.6,4.6,68,0.00,CLR,,0.00,WeatherDisplay:10.37,2013-03-14 17:03:00,
2013-03-14 12:04:00,29.5,20.2,30.22,SW,222,3.5,4.7,68,0.00,CLR,,0.00,WeatherDisplay:10.37,2013-03-14 17:04:00,
2013-03-14 12:08:00,29.6,20.3,30.22,SSE,164,2.8,3.5,68,0.00,CLR,,0.00,WeatherDisplay:10.37,2013-03-14 17:08:00,
2013-03-14 12:09:00,29.6,20.3,30.22,East,79,1.5,3.5,68,0.00,CLR,,0.00,WeatherDisplay:10.37,2013-03-14 17:09:00,
2013-03-14 12:13:00,29.7,20.8,30.21,SSW,206,3.1,4.6,69,0.00,CLR,,0.00,WeatherDisplay:10.37,2013-03-14 17:13:00,
2013-03-14 12:14:00,29.8,20.9,30.21,South,184,2.9,5.7,69,0.00,CLR,,0.00,WeatherDisplay:10.37,2013-03-14 17:14:00,
2013-03-14 12:18:00,29.9,20.6,30.21,SSE,168,3.3,5.8,68,0.00,CLR,,0.00,WeatherDisplay:10.37,2013-03-14 17:18:00,
2013-03-14 12:19:00,29.8,20.5,30.21,SSE,164,3.1,5.8,68,0.00,CLR,,0.00,WeatherDisplay:10.37,2013-03-14 17:19:00,
2013-03-14 12:23:00,30.0,20.7,30.21,SW,224,3.4,4.6,68,0.00,CLR,,0.00,WeatherDisplay:10.37,2013-03-14 17:23:00,
2013-03-14 12:24:00,30.0,20.7,30.21,SW,222,3.5,4.6,68,0.00,CLR,,0.00,WeatherDisplay:10.37,2013-03-14 17:24:00,
2013-03-14 12:29:00,30.2,20.9,30.20,SW,232,2.0,4.6,68,0.00,CLR,,0.00,WeatherDisplay:10.37,2013-03-14 17:29:00,
2013-03-14 12:30:00,30.1,20.8,30.20,SW,230,3.4,5.2,68,0.00,CLR,,0.00,WeatherDisplay:10.37,2013-03-14 17:30:00,
2013-03-14 12:34:00,30.2,20.9,30.20,SW,226,3.2,5.8,68,0.00,CLR,,0.00,WeatherDisplay:10.37,2013-03-14 17:34:00,
2013-03-14 12:35:00,30.3,21.0,30.20,SSW,205,3.4,4.6,68,0.00,CLR,,0.00,WeatherDisplay:10.37,2013-03-14 17:35:00,
2013-03-14 12:39:00,30.5,21.2,30.20,South,182,3.0,5.8,68,0.00,CLR,,0.00,WeatherDisplay:10.37,2013-03-14 17:39:00,
2013-03-14 12:40:00,30.5,21.2,30.20,SE,127,2.5,4.6,68,0.00,CLR,,0.00,WeatherDisplay:10.37,2013-03-14 17:40:00,
2013-03-14 12:44:00,30.6,21.3,30.20,SW,229,3.3,5.8,68,0.00,CLR,,0.00,WeatherDisplay:10.37,2013-03-14 17:44:00,
2013-03-14 12:45:00,30.6,21.3,30.20,SW,220,3.2,5.8,68,0.00,CLR,,0.00,WeatherDisplay:10.37,2013-03-14 17:45:00,
2013-03-14 12:49:00,30.5,21.2,30.20,SSW,206,3.2,4.3,68,0.00,CLR,,0.00,WeatherDisplay:10.37,2013-03-14 17:49:00,
2013-03-14 12:50:00,30.6,21.3,30.20,WSW,237,3.4,5.8,68,0.00,CLR,,0.00,WeatherDisplay:10.37,2013-03-14 17:50:00,
2013-03-14 12:54:00,30.5,21.2,30.20,SSW,206,6.1,6.9,68,0.00,CLR,,0.00,WeatherDisplay:10.37,2013-03-14 17:54:00,
2013-03-14 12:55:00,30.5,21.2,30.20,SSW,210,5.3,8.1,68,0.00,CLR,,0.00,WeatherDisplay:10.37,2013-03-14 17:55:00,
2013-03-14 12:59:00,30.4,20.7,30.20,SSW,192,2.2,6.9,67,0.00,CLR,,0.00,WeatherDisplay:10.37,2013-03-14 17:59:00,
2013-03-14 13:00:00,30.4,20.7,30.20,WSW,237,3.0,5.5,67,0.00,CLR,,0.00,WeatherDisplay:10.37,2013-03-14 18:00:00,
2013-03-14 13:05:00,30.3,21.0,30.19,West,267,3.9,5.8,68,0.00,CLR,,0.00,WeatherDisplay:10.37,2013-03-14 18:05:00,
2013-03-14 13:10:00,30.4,21.1,30.19,SW,219,4.7,6.9,68,0.00,CLR,,0.00,WeatherDisplay:10.37,2013-03-14 18:10:00,
2013-03-14 13:15:00,30.5,20.8,30.19,SSE,167,5.8,8.4,67,0.00,CLR,,0.00,WeatherDisplay:10.37,2013-03-14 18:15:00,
2013-03-14 13:16:00,30.5,20.8,30.19,SW,217,4.1,8.1,67,0.00,CLR,,0.00,WeatherDisplay:10.37,2013-03-14 18:16:00,
2013-03-14 13:20:00,30.7,21.0,30.18,SW,232,6.8,10.4,67,0.00,CLR,,0.00,WeatherDisplay:10.37,2013-03-14 18:20:00,
2013-03-14 13:21:00,30.8,21.1,30.18,WSW,251,6.1,9.2,67,0.00,CLR,,0.00,WeatherDisplay:10.37,2013-03-14 18:21:00,
2013-03-14 13:25:00,31.0,21.3,30.18,SSW,199,6.0,9.2,67,0.00,CLR,,0.00,WeatherDisplay:10.37,2013-03-14 18:25:00,
2013-03-14 13:26:00,31.1,21.1,30.18,SSW,206,4.7,9.2,66,0.00,CLR,,0.00,WeatherDisplay:10.37,2013-03-14 18:26:00,
2013-03-14 13:30:00,31.2,21.2,30.18,SW,229,8.0,10.4,66,0.00,CLR,,0.00,WeatherDisplay:10.37,2013-03-14 18:30:00,
2013-03-14 13:31:00,31.2,21.2,30.18,SW,222,4.4,10.4,66,0.00,CLR,,0.00,WeatherDisplay:10.37,2013-03-14 18:31:00,
2013-03-14 13:36:00,31.1,21.1,30.18,SW,229,7.8,11.5,66,0.00,CLR,,0.00,WeatherDisplay:10.37,2013-03-14 18:36:00,
2013-03-14 13:37:00,31.1,21.1,30.18,SW,219,6.2,11.5,66,0.00,CLR,,0.00,WeatherDisplay:10.37,2013-03-14 18:37:00,
2013-03-14 13:42:00,31.2,21.2,30.18,SW,220,6.7,11.5,66,0.00,CLR,,0.00,WeatherDisplay:10.37,2013-03-14 18:42:00,
2013-03-14 13:43:00,31.2,21.2,30.18,SW,223,5.4,8.1,66,0.00,CLR,,0.00,WeatherDisplay:10.37,2013-03-14 18:43:00,
2013-03-14 13:48:00,31.4,21.3,30.18,SW,220,5.5,8.3,66,0.00,CLR,,0.00,WeatherDisplay:10.37,2013-03-14 18:48:00,
2013-03-14 13:49:00,31.5,21.4,30.18,South,171,5.1,8.1,66,0.00,CLR,,0.00,WeatherDisplay:10.37,2013-03-14 18:49:00,
2013-03-14 13:53:00,31.6,21.5,30.17,West,277,4.8,6.9,66,0.00,CLR,,0.00,WeatherDisplay:10.37,2013-03-14 18:53:00,
2013-03-14 13:54:00,31.8,21.7,30.17,West,268,5.5,10.4,66,0.00,CLR,,0.00,WeatherDisplay:10.37,2013-03-14 18:54:00,
2013-03-14 13:59:00,32.0,21.9,30.17,South,188,6.1,9.2,66,0.00,CLR,,0.00,WeatherDisplay:10.37,2013-03-14 18:59:00,
2013-03-14 14:04:00,32.4,21.9,30.17,SW,224,6.8,10.4,65,0.00,CLR,,0.00,WeatherDisplay:10.37,2013-03-14 19:04:00,
2013-03-14 14:09:00,32.7,22.2,30.16,SW,222,5.0,9.2,65,0.00,CLR,,0.00,WeatherDisplay:10.37,2013-03-14 19:09:00,
2013-03-14 14:14:00,33.1,22.2,30.15,South,179,4.9,8.4,64,0.00,CLR,,0.00,WeatherDisplay:10.37,2013-03-14 19:14:00,
2013-03-14 14:15:00,33.2,22.3,30.15,SSW,199,5.7,8.8,64,0.00,CLR,,0.00,WeatherDisplay:10.37,2013-03-14 19:15:00,
2013-03-14 14:19:00,33.7,22.4,30.15,SW,226,7.6,9.2,63,0.00,CLR,,0.00,WeatherDisplay:10.37,2013-03-14 19:19:00,
2013-03-14 14:20:00,33.7,22.1,30.15,SW,226,8.5,11.5,62,0.00,CLR,,0.00,WeatherDisplay:10.37,2013-03-14 19:20:00,
2013-03-14 14:24:00,33.9,22.2,30.14,SSW,203,7.4,10.4,62,0.00,CLR,,0.00,WeatherDisplay:10.37,2013-03-14 19:24:00,
2013-03-14 14:25:00,34.0,22.3,30.14,South,191,6.7,10.4,62,0.00,CLR,,0.00,WeatherDisplay:10.37,2013-03-14 19:25:00,
2013-03-14 14:29:00,34.1,22.4,30.14,SW,229,4.8,11.1,62,0.00,CLR,,0.00,WeatherDisplay:10.37,2013-03-14 19:29:00,
2013-03-14 14:30:00,34.1,22.4,30.14,SSW,202,9.6,11.5,62,0.00,CLR,,0.00,WeatherDisplay:10.37,2013-03-14 19:30:00,
2013-03-14 14:34:00,34.0,22.3,30.14,SSE,165,4.7,6.8,62,0.00,CLR,,0.00,WeatherDisplay:10.37,2013-03-14 19:34:00,
2013-03-14 14:35:00,34.1,22.4,30.14,SSW,206,4.9,9.2,62,0.00,CLR,,0.00,WeatherDisplay:10.37,2013-03-14 19:35:00,
2013-03-14 14:39:00,34.3,22.2,30.14,WSW,243,6.5,9.2,61,0.00,CLR,,0.00,WeatherDisplay:10.37,2013-03-14 19:39:00,
2013-03-14 14:40:00,34.3,22.2,30.14,SW,224,7.2,9.2,61,0.00,CLR,,0.00,WeatherDisplay:10.37,2013-03-14 19:40:00,
2013-03-14 14:44:00,34.6,22.5,30.14,SW,232,4.6,5.8,61,0.00,CLR,,0.00,WeatherDisplay:10.37,2013-03-14 19:44:00,
2013-03-14 14:45:00,34.8,22.7,30.14,SW,216,5.0,6.8,61,0.00,CLR,,0.00,WeatherDisplay:10.37,2013-03-14 19:45:00,
2013-03-14 14:50:00,35.0,22.5,30.13,SW,226,7.7,11.5,60,0.00,CLR,,0.00,WeatherDisplay:10.37,2013-03-14 19:50:00,
2013-03-14 14:52:00,35.0,22.5,30.13,SW,227,5.6,8.1,60,0.00,CLR,,0.00,WeatherDisplay:10.37,2013-03-14 19:52:00,
2013-03-14 14:55:00,35.1,22.6,30.13,SSW,199,5.2,8.1,60,0.00,CLR,,0.00,WeatherDisplay:10.37,2013-03-14 19:55:00,
2013-03-14 14:57:00,35.3,22.8,30.12,South,172,5.1,7.9,60,0.00,CLR,,0.00,WeatherDisplay:10.37,2013-03-14 19:57:00,
2013-03-14 15:00:00,35.5,22.6,30.12,South,171,5.1,11.5,59,0.00,CLR,,0.00,WeatherDisplay:10.37,2013-03-14 20:00:00,
2013-03-14 15:02:00,35.7,22.8,30.12,SSW,210,7.3,8.5,59,0.00,CLR,,0.00,WeatherDisplay:10.37,2013-03-14 20:02:00,
2013-03-14 15:05:00,35.8,22.9,30.12,SSW,213,3.3,9.2,59,0.00,CLR,,0.00,WeatherDisplay:10.37,2013-03-14 20:05:00,
2013-03-14 15:06:00,35.9,23.0,30.12,SW,229,5.1,5.8,59,0.00,CLR,,0.00,WeatherDisplay:10.37,2013-03-14 20:06:00,
2013-03-14 15:08:00,36.1,23.1,30.11,SSW,210,6.2,9.2,59,0.00,CLR,,0.00,WeatherDisplay:10.37,2013-03-14 20:08:00,
2013-03-14 15:10:00,36.3,22.9,30.11,SSW,193,6.2,10.4,58,0.00,CLR,,0.00,WeatherDisplay:10.37,2013-03-14 20:10:00,
2013-03-14 15:11:00,36.4,23.0,30.11,South,186,7.0,8.1,58,0.00,CLR,,0.00,WeatherDisplay:10.37,2013-03-14 20:11:00,
2013-03-14 15:13:00,36.3,22.9,30.11,SW,220,7.1,11.4,58,0.00,CLR,,0.00,WeatherDisplay:10.37,2013-03-14 20:13:00,
2013-03-14 15:15:00,36.6,22.8,30.10,SSW,212,7.4,10.4,57,0.00,CLR,,0.00,WeatherDisplay:10.37,2013-03-14 20:15:00,
2013-03-14 15:16:00,36.6,23.2,30.10,SSW,202,7.5,10.4,58,0.00,CLR,,0.00,WeatherDisplay:10.37,2013-03-14 20:16:00,
2013-03-14 15:17:00,36.6,23.2,30.10,SSW,202,7.5,10.4,58,0.00,CLR,,0.00,WeatherDisplay:10.37,2013-03-14 20:17:00,
2013-03-14 15:18:00,36.5,23.1,30.10,South,182,6.9,11.5,58,0.00,CLR,,0.00,WeatherDisplay:10.37,2013-03-14 20:18:00,
2013-03-14 15:20:00,36.6,23.2,30.10,SSW,196,6.8,8.6,58,0.00,CLR,,0.00,WeatherDisplay:10.37,2013-03-14 20:20:00,
2013-03-14 15:22:00,36.6,23.2,30.10,WSW,243,4.6,10.4,58,0.00,CLR,,0.00,WeatherDisplay:10.37,2013-03-14 20:22:00,
2013-03-14 15:24:00,36.7,23.3,30.10,SW,226,4.3,8.1,58,0.00,CLR,,0.00,WeatherDisplay:10.37,2013-03-14 20:24:00,
2013-03-14 15:25:00,36.7,23.3,30.10,South,184,6.4,10.4,58,0.00,CLR,,0.00,WeatherDisplay:10.37,2013-03-14 20:25:00,
2013-03-14 15:27:00,36.8,23.4,30.10,SW,215,5.6,10.4,58,0.00,CLR,,0.00,WeatherDisplay:10.37,2013-03-14 20:27:00,
2013-03-14 15:29:00,36.9,23.1,30.10,SSW,205,8.7,11.5,57,0.00,CLR,,0.00,WeatherDisplay:10.37,2013-03-14 20:29:00,
2013-03-14 15:31:00,37.1,22.8,30.10,SSW,195,7.3,10.4,56,0.00,CLR,,0.00,WeatherDisplay:10.37,2013-03-14 20:31:00,
2013-03-14 15:32:00,37.1,22.8,30.10,SSE,148,5.4,9.2,56,0.00,CLR,,0.00,WeatherDisplay:10.37,2013-03-14 20:32:00,
2013-03-14 15:35:00,37.0,23.2,30.11,SW,227,5.7,9.2,57,0.00,CLR,,0.00,WeatherDisplay:10.37,2013-03-14 20:35:00,
2013-03-14 15:37:00,37.0,23.2,30.11,ESE,119,4.6,6.9,57,0.00,CLR,,0.00,WeatherDisplay:10.37,2013-03-14 20:37:00,
2013-03-14 15:40:00,37.2,23.4,30.11,SSE,165,1.2,5.3,57,0.00,CLR,,0.00,WeatherDisplay:10.37,2013-03-14 20:40:00,
2013-03-14 15:42:00,37.4,23.5,30.12,WSW,244,2.5,5.8,57,0.00,CLR,,0.00,WeatherDisplay:10.37,2013-03-14 20:42:00,
2013-03-14 15:45:00,37.6,23.7,30.12,South,184,5.3,6.9,57,0.00,CLR,,0.00,WeatherDisplay:10.37,2013-03-14 20:45:00,
2013-03-14 15:47:00,37.9,23.6,30.13,SE,133,2.2,4.0,56,0.00,CLR,,0.00,WeatherDisplay:10.37,2013-03-14 20:47:00,
2013-03-14 15:50:00,38.1,23.8,30.13,South,182,3.3,4.9,56,0.00,CLR,,0.00,WeatherDisplay:10.37,2013-03-14 20:50:00,
2013-03-14 15:52:00,38.3,24.0,30.14,SW,217,4.0,9.2,56,0.00,CLR,,0.00,WeatherDisplay:10.37,2013-03-14 20:52:00,
2013-03-14 15:53:00,38.4,24.1,30.14,West,278,3.4,5.8,56,0.00,CLR,,0.00,WeatherDisplay:10.37,2013-03-14 20:53:00,
2013-03-14 15:55:00,38.5,23.7,30.14,SW,219,3.4,4.6,55,0.00,CLR,,0.00,WeatherDisplay:10.37,2013-03-14 20:55:00,
2013-03-14 15:57:00,38.3,23.5,30.15,WSW,247,3.3,6.9,55,0.00,CLR,,0.00,WeatherDisplay:10.37,2013-03-14 20:57:00,
2013-03-14 15:58:00,38.2,23.4,30.15,West,280,2.9,5.8,55,0.00,CLR,,0.00,WeatherDisplay:10.37,2013-03-14 20:58:00,
2013-03-14 16:00:00,38.1,23.3,30.15,SW,232,2.8,4.6,55,0.00,CLR,,0.00,WeatherDisplay:10.37,2013-03-14 21:00:00,
2013-03-14 16:02:00,37.8,23.5,30.14,SW,227,4.0,5.8,56,0.00,CLR,,0.00,WeatherDisplay:10.37,2013-03-14 21:02:00,
2013-03-14 16:03:00,37.8,23.5,30.14,SW,236,4.1,5.8,56,0.00,CLR,,0.00,WeatherDisplay:10.37,2013-03-14 21:03:00,
2013-03-14 16:05:00,37.7,23.4,30.14,WSW,253,3.8,5.7,56,0.00,CLR,,0.00,WeatherDisplay:10.37,2013-03-14 21:05:00,
2013-03-14 16:07:00,37.7,23.4,30.14,SW,230,2.8,4.5,56,0.00,CLR,,0.00,WeatherDisplay:10.37,2013-03-14 21:07:00,
2013-03-14 16:08:00,37.7,23.4,30.14,WSW,248,3.0,6.3,56,0.00,CLR,,0.00,WeatherDisplay:10.37,2013-03-14 21:08:00,
2013-03-14 16:10:00,37.6,23.3,30.15,SW,229,2.9,5.2,56,0.00,CLR,,0.00,WeatherDisplay:10.37,2013-03-14 21:10:00,
2013-03-14 16:13:00,37.8,23.5,30.14,WSW,246,4.0,5.8,56,0.00,CLR,,0.00,WeatherDisplay:10.37,2013-03-14 21:13:00,
2013-03-14 16:15:00,38.0,23.7,30.14,West,264,4.1,5.8,56,0.00,CLR,,0.00,WeatherDisplay:10.37,2013-03-14 21:15:00,
2013-03-14 16:18:00,38.2,23.9,30.14,West,268,2.8,5.8,56,0.00,CLR,,0.00,WeatherDisplay:10.37,2013-03-14 21:18:00,
2013-03-14 16:20:00,38.2,23.4,30.15,WSW,243,0.8,3.5,55,0.00,CLR,,0.00,WeatherDisplay:10.37,2013-03-14 21:20:00,
2013-03-14 16:23:00,38.1,23.3,30.15,West,274,4.3,5.8,55,0.00,CLR,,0.00,WeatherDisplay:10.37,2013-03-14 21:23:00,
2013-03-14 16:24:00,37.9,23.2,30.15,West,274,3.0,4.6,55,0.00,CLR,,0.00,WeatherDisplay:10.37,2013-03-14 21:24:00,
2013-03-14 16:27:00,37.4,23.1,30.15,SW,227,3.7,5.8,56,0.00,CLR,,0.00,WeatherDisplay:10.37,2013-03-14 21:27:00,
2013-03-14 16:28:00,37.3,23.0,30.15,West,270,3.5,5.8,56,0.00,CLR,,0.00,WeatherDisplay:10.37,2013-03-14 21:28:00,
2013-03-14 16:29:00,37.1,22.8,30.15,West,268,1.9,6.9,56,0.00,CLR,,0.00,WeatherDisplay:10.37,2013-03-14 21:29:00,
2013-03-14 16:32:00,36.6,22.8,30.16,WSW,257,3.3,5.8,57,0.00,CLR,,0.00,WeatherDisplay:10.37,2013-03-14 21:32:00,
2013-03-14 16:33:00,36.4,22.6,30.16,WNW,301,2.7,3.5,57,0.00,CLR,,0.00,WeatherDisplay:10.37,2013-03-14 21:33:00,
2013-03-14 16:34:00,36.2,22.8,30.16,WSW,244,2.7,3.5,58,0.00,CLR,,0.00,WeatherDisplay:10.37,2013-03-14 21:34:00,
2013-03-14 16:37:00,35.9,22.5,30.16,SW,230,2.3,4.6,58,0.00,CLR,,0.00,WeatherDisplay:10.37,2013-03-14 21:37:00,
2013-03-14 16:38:00,35.7,22.4,30.16,WNW,302,3.1,5.8,58,0.00,CLR,,0.00,WeatherDisplay:10.37,2013-03-14 21:38:00,
2013-03-14 16:39:00,35.5,22.2,30.16,WSW,237,1.7,3.9,58,0.00,CLR,,0.00,WeatherDisplay:10.37,2013-03-14 21:39:00,
2013-03-14 16:42:00,35.2,22.7,30.16,WSW,246,5.0,5.8,60,0.00,CLR,,0.00,WeatherDisplay:10.37,2013-03-14 21:42:00,
2013-03-14 16:43:00,35.3,22.8,30.16,WSW,240,4.4,6.9,60,0.00,CLR,,0.00,WeatherDisplay:10.37,2013-03-14 21:43:00,
2013-03-14 16:44:00,35.3,22.8,30.16,SW,234,2.3,4.6,60,0.00,CLR,,0.00,WeatherDisplay:10.37,2013-03-14 21:44:00,
2013-03-14 16:47:00,35.1,22.6,30.16,WNW,299,2.3,3.5,60,0.00,CLR,,0.00,WeatherDisplay:10.37,2013-03-14 21:47:00,
2013-03-14 16:48:00,35.0,22.5,30.16,WNW,296,1.8,3.5,60,0.00,CLR,,0.00,WeatherDisplay:10.37,2013-03-14 21:48:00,
2013-03-14 16:49:00,35.0,22.5,30.16,WNW,291,0.7,3.5,60,0.00,CLR,,0.00,WeatherDisplay:10.37,2013-03-14 21:49:00,
2013-03-14 16:52:00,34.8,22.3,30.15,SW,227,2.9,2.9,60,0.00,CLR,,0.00,WeatherDisplay:10.37,2013-03-14 21:52:00,
2013-03-14 16:53:00,34.8,22.3,30.15,WSW,244,2.8,4.6,60,0.00,CLR,,0.00,WeatherDisplay:10.37,2013-03-14 21:53:00,
2013-03-14 16:54:00,34.7,22.2,30.15,WSW,241,1.2,3.5,60,0.00,CLR,,0.00,WeatherDisplay:10.37,2013-03-14 21:54:00,
2013-03-14 16:58:00,35.0,22.9,30.15,SW,236,2.9,4.6,61,0.00,CLR,,0.00,WeatherDisplay:10.37,2013-03-14 21:58:00,
2013-03-14 16:59:00,35.0,22.9,30.15,SW,230,2.7,5.8,61,0.00,CLR,,0.00,WeatherDisplay:10.37,2013-03-14 21:59:00,
2013-03-14 17:03:00,35.4,22.9,30.14,WNW,282,3.2,5.8,60,0.00,CLR,,0.00,WeatherDisplay:10.37,2013-03-14 22:03:00,
2013-03-14 17:04:00,35.5,23.0,30.14,WSW,246,2.5,3.5,60,0.00,CLR,,0.00,WeatherDisplay:10.37,2013-03-14 22:04:00,
2013-03-14 17:05:00,35.5,23.0,30.14,WSW,251,2.1,3.5,60,0.00,CLR,,0.00,WeatherDisplay:10.37,2013-03-14 22:05:00,
2013-03-14 17:08:00,35.7,23.2,30.14,South,174,2.9,4.6,60,0.00,CLR,,0.00,WeatherDisplay:10.37,2013-03-14 22:08:00,
2013-03-14 17:09:00,35.8,23.3,30.14,ESE,120,3.2,4.6,60,0.00,CLR,,0.00,WeatherDisplay:10.37,2013-03-14 22:09:00,
2013-03-14 17:10:00,35.6,23.1,30.14,SSW,210,2.0,4.6,60,0.00,CLR,,0.00,WeatherDisplay:10.37,2013-03-14 22:10:00,
2013-03-14 17:13:00,35.8,23.3,30.14,SE,134,2.1,3.5,60,0.00,CLR,,0.00,WeatherDisplay:10.37,2013-03-14 22:13:00,
2013-03-14 17:14:00,35.8,23.3,30.14,South,174,1.6,3.5,60,0.00,CLR,,0.00,WeatherDisplay:10.37,2013-03-14 22:14:00,
2013-03-14 17:15:00,35.9,23.4,30.14,SE,130,0.6,2.3,60,0.00,CLR,,0.00,WeatherDisplay:10.37,2013-03-14 22:15:00,
2013-03-14 17:18:00,36.0,23.4,30.14,SW,232,3.4,3.5,60,0.00,CLR,,0.00,WeatherDisplay:10.37,2013-03-14 22:18:00,
2013-03-14 17:19:00,36.1,23.5,30.13,WNW,289,2.5,5.0,60,0.00,CLR,,0.00,WeatherDisplay:10.37,2013-03-14 22:19:00,
2013-03-14 17:20:00,36.2,23.6,30.13,WNW,289,3.3,5.8,60,0.00,CLR,,0.00,WeatherDisplay:10.37,2013-03-14 22:20:00,
2013-03-14 17:23:00,36.3,23.7,30.13,SW,233,2.5,5.8,60,0.00,CLR,,0.00,WeatherDisplay:10.37,2013-03-14 22:23:00,
2013-03-14 17:24:00,36.4,23.4,30.13,SW,226,3.7,5.8,59,0.00,CLR,,0.00,WeatherDisplay:10.37,2013-03-14 22:24:00,
2013-03-14 17:25:00,36.4,23.4,30.13,SSW,200,2.2,4.6,59,0.00,CLR,,0.00,WeatherDisplay:10.37,2013-03-14 22:25:00,
2013-03-14 17:28:00,36.4,23.4,30.12,SSE,160,3.7,3.7,59,0.00,CLR,,0.00,WeatherDisplay:10.37,2013-03-14 22:28:00,
2013-03-14 17:29:00,36.3,23.3,30.12,South,188,2.6,5.8,59,0.00,CLR,,0.00,WeatherDisplay:10.37,2013-03-14 22:29:00,
2013-03-14 17:30:00,36.2,23.2,30.11,South,176,4.8,6.9,59,0.00,CLR,,0.00,WeatherDisplay:10.37,2013-03-14 22:30:00,
2013-03-14 17:33:00,36.3,23.3,30.11,SSW,202,4.9,6.9,59,0.00,CLR,,0.00,WeatherDisplay:10.37,2013-03-14 22:33:00,
2013-03-14 17:34:00,36.2,23.2,30.11,SSW,205,4.2,6.9,59,0.00,CLR,,0.00,WeatherDisplay:10.37,2013-03-14 22:34:00,
2013-03-14 17:35:00,36.1,23.5,30.11,SW,222,5.1,7.7,60,0.00,CLR,,0.00,WeatherDisplay:10.37,2013-03-14 22:35:00,
2013-03-14 17:39:00,36.0,23.0,30.11,SSE,157,4.3,6.9,59,0.00,CLR,,0.00,WeatherDisplay:10.37,2013-03-14 22:39:00,
2013-03-14 17:40:00,35.9,23.4,30.11,SSW,209,4.0,5.8,60,0.00,CLR,,0.00,WeatherDisplay:10.37,2013-03-14 22:40:00,
2013-03-14 17:44:00,35.7,23.2,30.10,SW,215,3.6,5.8,60,0.00,CLR,,0.00,WeatherDisplay:10.37,2013-03-14 22:44:00,
2013-03-14 17:45:00,35.6,23.1,30.10,WSW,257,4.1,5.8,60,0.00,CLR,,0.00,WeatherDisplay:10.37,2013-03-14 22:45:00,
2013-03-14 17:49:00,35.5,23.0,30.10,SSW,205,5.1,8.1,60,0.00,CLR,,0.00,WeatherDisplay:10.37,2013-03-14 22:49:00,
2013-03-14 17:50:00,35.4,22.9,30.10,SE,127,4.1,6.9,60,0.00,CLR,,0.00,WeatherDisplay:10.37,2013-03-14 22:50:00,
2013-03-14 17:54:00,35.1,23.0,30.10,SW,219,6.5,10.4,61,0.00,CLR,,0.00,WeatherDisplay:10.37,2013-03-14 22:54:00,
2013-03-14 17:55:00,35.0,22.9,30.09,SW,215,5.6,10.4,61,0.00,CLR,,0.00,WeatherDisplay:10.37,2013-03-14 22:55:00,
2013-03-14 17:59:00,35.0,22.9,30.09,SSE,165,3.0,5.3,61,0.00,CLR,,0.00,WeatherDisplay:10.37,2013-03-14 22:59:00,
2013-03-14 18:00:00,35.0,22.9,30.09,SSW,212,3.5,5.8,61,0.00,CLR,,0.00,WeatherDisplay:10.37,2013-03-14 23:00:00,
2013-03-14 18:04:00,34.5,22.8,30.11,SSW,198,2.7,4.6,62,0.00,CLR,,0.00,WeatherDisplay:10.37,2013-03-14 23:04:00,
2013-03-14 18:05:00,34.5,22.8,30.11,SW,223,3.6,5.2,62,0.00,CLR,,0.00,WeatherDisplay:10.37,2013-03-14 23:05:00,
2013-03-14 18:09:00,34.1,22.8,30.10,SSW,212,4.0,6.9,63,0.00,CLR,,0.00,WeatherDisplay:10.37,2013-03-14 23:09:00,
2013-03-14 18:10:00,34.1,22.8,30.10,SW,217,3.9,5.8,63,0.00,CLR,,0.00,WeatherDisplay:10.37,2013-03-14 23:10:00,
2013-03-14 18:14:00,33.7,22.4,30.11,SW,217,5.6,8.1,63,0.00,CLR,,0.00,WeatherDisplay:10.37,2013-03-14 23:14:00,
2013-03-14 18:15:00,33.7,22.8,30.11,SSW,200,6.4,8.1,64,0.00,CLR,,0.00,WeatherDisplay:10.37,2013-03-14 23:15:00,
2013-03-14 18:19:00,33.3,22.4,30.11,SW,232,6.0,8.1,64,0.00,CLR,,0.00,WeatherDisplay:10.37,2013-03-14 23:19:00,
2013-03-14 18:20:00,33.2,22.3,30.11,SSW,205,6.1,6.9,64,0.00,CLR,,0.00,WeatherDisplay:10.37,2013-03-14 23:20:00,
2013-03-14 18:25:00,32.9,22.4,30.11,SSW,193,3.8,7.0,65,0.00,CLR,,0.00,WeatherDisplay:10.37,2013-03-14 23:25:00,
2013-03-14 18:30:00,32.5,22.4,30.11,SW,230,4.2,5.8,66,0.00,CLR,,0.00,WeatherDisplay:10.37,2013-03-14 23:30:00,
2013-03-14 18:35:00,32.2,22.5,30.11,SW,236,5.1,8.1,67,0.00,CLR,,0.00,WeatherDisplay:10.37,2013-03-14 23:35:00,
2013-03-14 18:36:00,32.1,22.4,30.11,SW,236,4.3,6.9,67,0.00,CLR,,0.00,WeatherDisplay:10.37,2013-03-14 23:36:00,
2013-03-14 18:40:00,31.8,22.4,30.11,SW,229,4.6,6.9,68,0.00,CLR,,0.00,WeatherDisplay:10.37,2013-03-14 23:40:00,
2013-03-14 18:41:00,31.7,22.3,30.11,WSW,237,3.1,4.6,68,0.00,CLR,,0.00,WeatherDisplay:10.37,2013-03-14 23:41:00,
2013-03-14 18:45:00,31.4,22.1,30.11,WSW,253,3.6,6.9,68,0.00,CLR,,0.00,WeatherDisplay:10.37,2013-03-14 23:45:00,
2013-03-14 18:46:00,31.3,22.0,30.11,SW,220,4.6,6.0,68,0.00,CLR,,0.00,WeatherDisplay:10.37,2013-03-14 23:46:00,
2013-03-14 18:50:00,31.3,22.3,30.11,SW,220,6.1,8.3,69,0.00,CLR,,0.00,WeatherDisplay:10.37,2013-03-14 23:50:00,
2013-03-14 18:52:00,31.1,22.1,30.11,SW,230,5.6,6.8,69,0.00,CLR,,0.00,WeatherDisplay:10.37,2013-03-14 23:52:00,
2013-03-14 18:55:00,30.9,22.3,30.11,SW,222,3.8,6.0,70,0.00,CLR,,0.00,WeatherDisplay:10.37,2013-03-14 23:55:00,
2013-03-14 18:56:00,30.8,22.2,30.11,SW,224,5.6,8.1,70,0.00,CLR,,0.00,WeatherDisplay:10.37,2013-03-14 23:56:00,
2013-03-14 18:58:00,30.8,22.2,30.11,SW,223,4.2,5.8,70,0.00,CLR,,0.00,WeatherDisplay:10.37,2013-03-14 23:58:00,
2013-03-14 19:00:00,30.7,22.1,30.11,SW,232,5.4,6.9,70,0.00,CLR,,0.00,WeatherDisplay:10.37,2013-03-15 00:00:00,
2013-03-14 19:01:00,30.6,22.0,30.11,SW,233,5.5,6.9,70,0.00,CLR,,0.00,WeatherDisplay:10.37,2013-03-15 00:01:00,
2013-03-14 19:03:00,30.5,21.9,30.11,SW,233,3.6,4.6,70,0.00,CLR,,0.00,WeatherDisplay:10.37,2013-03-15 00:03:00,
2013-03-14 19:05:00,30.5,22.2,30.11,SW,224,5.5,6.9,71,0.00,CLR,,0.00,WeatherDisplay:10.37,2013-03-15 00:05:00,
2013-03-14 19:06:00,30.5,22.2,30.11,WSW,239,5.1,6.9,71,0.00,CLR,,0.00,WeatherDisplay:10.37,2013-03-15 00:06:00,
2013-03-14 19:08:00,30.3,22.0,30.11,SW,229,4.7,7.0,71,0.00,CLR,,0.00,WeatherDisplay:10.37,2013-03-15 00:08:00,
2013-03-14 19:11:00,30.2,21.9,30.10,SW,227,5.0,7.4,71,0.00,CLR,,0.00,WeatherDisplay:10.37,2013-03-15 00:11:00,
2013-03-14 19:12:00,30.2,21.9,30.10,SW,226,5.6,6.9,71,0.00,CLR,,0.00,WeatherDisplay:10.37,2013-03-15 00:12:00,
2013-03-14 19:13:00,30.2,22.3,30.10,SW,222,5.6,6.9,72,0.00,CLR,,0.00,WeatherDisplay:10.37,2013-03-15 00:13:00,
2013-03-14 19:16:00,30.1,22.2,30.10,SW,230,4.1,6.9,72,0.00,CLR,,0.00,WeatherDisplay:10.37,2013-03-15 00:16:00,
2013-03-14 19:17:00,30.0,22.1,30.10,WSW,239,4.6,5.8,72,0.00,CLR,,0.00,WeatherDisplay:10.37,2013-03-15 00:17:00,
2013-03-14 19:18:00,30.0,22.1,30.10,WSW,239,5.2,6.9,72,0.00,CLR,,0.00,WeatherDisplay:10.37,2013-03-15 00:18:00,
2013-03-14 19:22:00,29.9,22.0,30.10,SSW,208,5.6,9.2,72,0.00,CLR,,0.00,WeatherDisplay:10.37,2013-03-15 00:22:00,
2013-03-14 19:23:00,29.9,22.0,30.10,SW,230,5.5,8.1,72,0.00,CLR,,0.00,WeatherDisplay:10.37,2013-03-15 00:23:00,
2013-03-14 19:27:00,29.8,22.2,30.09,WSW,240,4.7,9.2,73,0.00,CLR,,0.00,WeatherDisplay:10.37,2013-03-15 00:27:00,
2013-03-14 19:28:00,29.7,22.1,30.09,SW,226,4.9,6.9,73,0.00,CLR,,0.00,WeatherDisplay:10.37,2013-03-15 00:28:00,
2013-03-14 19:32:00,29.6,22.0,30.09,SW,226,5.1,6.9,73,0.00,CLR,,0.00,WeatherDisplay:10.37,2013-03-15 00:32:00,
2013-03-14 19:33:00,29.6,22.0,30.09,WSW,256,5.0,6.9,73,0.00,CLR,,0.00,WeatherDisplay:10.37,2013-03-15 00:33:00,
2013-03-14 19:37:00,29.4,22.1,30.10,SW,220,5.9,8.1,74,0.00,CLR,,0.00,WeatherDisplay:10.37,2013-03-15 00:37:00,
2013-03-14 19:38:00,29.5,22.2,30.10,WSW,250,5.0,7.3,74,0.00,CLR,,0.00,WeatherDisplay:10.37,2013-03-15 00:38:00,
2013-03-14 19:42:00,29.3,22.0,30.10,WSW,241,4.2,6.9,74,0.00,CLR,,0.00,WeatherDisplay:10.37,2013-03-15 00:42:00,
2013-03-14 19:43:00,29.4,22.1,30.10,SW,215,5.2,8.1,74,0.00,CLR,,0.00,WeatherDisplay:10.37,2013-03-15 00:43:00,
2013-03-14 19:44:00,29.4,22.5,30.10,SW,230,5.8,8.1,75,0.00,CLR,,0.00,WeatherDisplay:10.37,2013-03-15 00:44:00,
2013-03-14 19:47:00,29.3,22.4,30.09,SW,233,6.1,9.2,75,0.00,CLR,,0.00,WeatherDisplay:10.37,2013-03-15 00:47:00,
2013-03-14 19:48:00,29.3,22.4,30.09,SW,236,5.2,8.1,75,0.00,CLR,,0.00,WeatherDisplay:10.37,2013-03-15 00:48:00,
2013-03-14 19:49:00,29.3,22.4,30.09,SW,232,3.5,5.8,75,0.00,CLR,,0.00,WeatherDisplay:10.37,2013-03-15 00:49:00,
2013-03-14 19:53:00,29.3,22.4,30.09,SW,232,6.1,9.2,75,0.00,CLR,,0.00,WeatherDisplay:10.37,2013-03-15 00:53:00,
2013-03-14 19:54:00,29.2,22.3,30.09,SW,215,3.6,6.9,75,0.00,CLR,,0.00,WeatherDisplay:10.37,2013-03-15 00:54:00,
2013-03-14 19:58:00,29.2,22.6,30.09,WSW,248,4.6,6.9,76,0.00,CLR,,0.00,WeatherDisplay:10.37,2013-03-15 00:58:00,
2013-03-14 19:59:00,29.2,22.6,30.09,WSW,237,4.0,6.9,76,0.00,CLR,,0.00,WeatherDisplay:10.37,2013-03-15 00:59:00,
2013-03-14 20:03:00,29.1,22.5,30.09,SW,236,4.8,6.9,76,0.00,CLR,,0.00,WeatherDisplay:10.37,2013-03-15 01:03:00,
2013-03-14 20:04:00,29.1,22.5,30.09,SW,234,4.2,6.9,76,0.00,CLR,,0.00,WeatherDisplay:10.37,2013-03-15 01:04:00,
2013-03-14 20:08:00,29.1,22.5,30.09,SW,227,5.9,8.1,76,0.00,CLR,,0.00,WeatherDisplay:10.37,2013-03-15 01:08:00,
2013-03-14 20:09:00,29.0,22.4,30.09,WSW,237,5.1,8.1,76,0.00,CLR,,0.00,WeatherDisplay:10.37,2013-03-15 01:09:00,
2013-03-14 20:10:00,29.0,22.4,30.09,WSW,251,4.4,5.8,76,0.00,CLR,,0.00,WeatherDisplay:10.37,2013-03-15 01:10:00,
2013-03-14 20:13:00,29.0,22.4,30.09,WSW,237,5.0,6.9,76,0.00,CLR,,0.00,WeatherDisplay:10.37,2013-03-15 01:13:00,
2013-03-14 20:14:00,29.0,22.4,30.09,SW,226,4.9,6.9,76,0.00,CLR,,0.00,WeatherDisplay:10.37,2013-03-15 01:14:00,
2013-03-14 20:15:00,28.9,22.3,30.08,SW,233,4.4,6.9,76,0.00,CLR,,0.00,WeatherDisplay:10.37,2013-03-15 01:15:00,
2013-03-14 20:18:00,28.9,22.6,30.08,WSW,251,4.9,6.9,77,0.00,CLR,,0.00,WeatherDisplay:10.37,2013-03-15 01:18:00,
2013-03-14 20:19:00,28.9,22.6,30.08,SW,232,4.8,6.9,77,0.00,CLR,,0.00,WeatherDisplay:10.37,2013-03-15 01:19:00,
2013-03-14 20:20:00,28.8,22.5,30.08,SW,232,4.2,4.7,77,0.00,CLR,,0.00,WeatherDisplay:10.37,2013-03-15 01:20:00,
2013-03-14 20:23:00,28.7,22.4,30.08,WSW,241,4.8,6.9,77,0.00,CLR,,0.00,WeatherDisplay:10.37,2013-03-15 01:23:00,
2013-03-14 20:24:00,28.8,22.5,30.08,WSW,240,4.6,5.8,77,0.00,CLR,,0.00,WeatherDisplay:10.37,2013-03-15 01:24:00,
2013-03-14 20:25:00,28.8,22.5,30.08,WSW,247,5.7,8.1,77,0.00,CLR,,0.00,WeatherDisplay:10.37,2013-03-15 01:25:00,
2013-03-14 20:28:00,28.7,22.4,30.08,WSW,246,4.8,6.9,77,0.00,CLR,,0.00,WeatherDisplay:10.37,2013-03-15 01:28:00,
2013-03-14 20:29:00,28.7,22.4,30.08,SW,226,5.1,6.9,77,0.00,CLR,,0.00,WeatherDisplay:10.37,2013-03-15 01:29:00,
2013-03-14 20:30:00,28.6,22.3,30.08,SW,222,5.0,6.9,77,0.00,CLR,,0.00,WeatherDisplay:10.37,2013-03-15 01:30:00,
2013-03-14 20:34:00,28.6,22.3,30.08,WSW,240,4.9,5.8,77,0.00,CLR,,0.00,WeatherDisplay:10.37,2013-03-15 01:34:00,
2013-03-14 20:35:00,28.6,22.3,30.08,SW,233,4.9,6.9,77,0.00,CLR,,0.00,WeatherDisplay:10.37,2013-03-15 01:35:00,
2013-03-14 20:39:00,28.5,22.5,30.07,SW,223,4.4,5.8,78,0.00,CLR,,0.00,WeatherDisplay:10.37,2013-03-15 01:39:00,
2013-03-14 20:40:00,28.5,22.5,30.06,SW,220,5.1,5.8,78,0.00,CLR,,0.00,WeatherDisplay:10.37,2013-03-15 01:40:00,
2013-03-14 20:44:00,28.4,22.4,30.06,WNW,287,4.3,5.2,78,0.00,CLR,,0.00,WeatherDisplay:10.37,2013-03-15 01:44:00,
2013-03-14 20:45:00,28.4,22.4,30.06,SW,216,4.6,6.8,78,0.00,CLR,,0.00,WeatherDisplay:10.37,2013-03-15 01:45:00,
2013-03-14 20:46:00,28.4,22.4,30.06,SSW,209,5.2,6.9,78,0.00,CLR,,0.00,WeatherDisplay:10.37,2013-03-15 01:46:00,
2013-03-14 20:49:00,28.3,22.3,30.06,SSW,208,4.2,5.8,78,0.00,CLR,,0.00,WeatherDisplay:10.37,2013-03-15 01:49:00,
2013-03-14 20:50:00,28.3,22.3,30.05,West,274,3.6,5.8,78,0.00,CLR,,0.00,WeatherDisplay:10.37,2013-03-15 01:50:00,
2013-03-14 20:51:00,28.3,22.3,30.05,SSW,213,3.7,6.0,78,0.00,CLR,,0.00,WeatherDisplay:10.37,2013-03-15 01:51:00,
2013-03-14 20:54:00,28.2,22.2,30.06,SW,227,3.6,5.8,78,0.00,CLR,,0.00,WeatherDisplay:10.37,2013-03-15 01:54:00,
2013-03-14 20:55:00,28.3,22.3,30.06,SW,234,3.6,5.8,78,0.00,CLR,,0.00,WeatherDisplay:10.37,2013-03-15 01:55:00,
2013-03-14 20:56:00,28.2,22.2,30.06,WSW,241,5.1,6.9,78,0.00,CLR,,0.00,WeatherDisplay:10.37,2013-03-15 01:56:00,
2013-03-14 21:00:00,28.1,22.1,30.06,West,271,4.1,5.8,78,0.00,CLR,,0.00,WeatherDisplay:10.37,2013-03-15 02:00:00,
2013-03-14 21:01:00,28.0,22.0,30.05,SW,236,3.5,4.7,78,0.00,CLR,,0.00,WeatherDisplay:10.37,2013-03-15 02:01:00,
2013-03-14 21:05:00,28.0,22.3,30.05,SW,220,5.1,5.8,79,0.00,CLR,,0.00,WeatherDisplay:10.37,2013-03-15 02:05:00,
2013-03-14 21:06:00,28.0,22.3,30.05,SW,229,4.5,6.9,79,0.00,CLR,,0.00,WeatherDisplay:10.37,2013-03-15 02:06:00,
2013-03-14 21:10:00,27.9,22.2,30.04,SW,215,4.5,5.8,79,0.00,CLR,,0.00,WeatherDisplay:10.37,2013-03-15 02:10:00,
2013-03-14 21:11:00,27.9,22.2,30.04,SW,229,4.4,5.8,79,0.00,CLR,,0.00,WeatherDisplay:10.37,2013-03-15 02:11:00,
2013-03-14 21:12:00,27.9,22.2,30.04,SW,222,4.3,5.8,79,0.00,CLR,,0.00,WeatherDisplay:10.37,2013-03-15 02:12:00,
2013-03-14 21:15:00,27.9,22.2,30.05,WSW,256,4.5,6.9,79,0.00,CLR,,0.00,WeatherDisplay:10.37,2013-03-15 02:15:00,
2013-03-14 21:17:00,27.9,22.2,30.05,SW,220,4.2,5.8,79,0.00,CLR,,0.00,WeatherDisplay:10.37,2013-03-15 02:17:00,
2013-03-14 21:21:00,27.9,22.2,30.05,SW,215,3.6,5.8,79,0.00,CLR,,0.00,WeatherDisplay:10.37,2013-03-15 02:21:00,
2013-03-14 21:22:00,27.9,22.2,30.04,SW,232,3.1,4.6,79,0.00,CLR,,0.00,WeatherDisplay:10.37,2013-03-15 02:22:00,
2013-03-14 21:26:00,27.8,22.1,30.04,SW,216,3.8,4.6,79,0.00,CLR,,0.00,WeatherDisplay:10.37,2013-03-15 02:26:00,
2013-03-14 21:27:00,27.9,22.5,30.04,WSW,239,3.6,4.6,80,0.00,CLR,,0.00,WeatherDisplay:10.37,2013-03-15 02:27:00,
2013-03-14 21:31:00,27.9,22.5,30.04,SW,215,4.5,5.8,80,0.00,CLR,,0.00,WeatherDisplay:10.37,2013-03-15 02:31:00,
2013-03-14 21:32:00,27.9,22.5,30.04,WSW,240,4.2,5.8,80,0.00,CLR,,0.00,WeatherDisplay:10.37,2013-03-15 02:32:00,
2013-03-14 21:36:00,27.8,22.4,30.04,SW,223,4.1,8.1,80,0.00,CLR,,0.00,WeatherDisplay:10.37,2013-03-15 02:36:00,
2013-03-14 21:37:00,27.9,22.5,30.04,SW,226,4.0,8.1,80,0.00,CLR,,0.00,WeatherDisplay:10.37,2013-03-15 02:37:00,
2013-03-14 21:38:00,27.8,22.4,30.04,SW,227,3.6,4.6,80,0.00,CLR,,0.00,WeatherDisplay:10.37,2013-03-15 02:38:00,
2013-03-14 21:41:00,27.8,22.4,30.04,SSW,213,4.8,6.9,80,0.00,CLR,,0.00,WeatherDisplay:10.37,2013-03-15 02:41:00,
2013-03-14 21:42:00,27.7,22.3,30.04,WSW,237,4.5,5.8,80,0.00,CLR,,0.00,WeatherDisplay:10.37,2013-03-15 02:42:00,
2013-03-14 21:43:00,27.8,22.4,30.04,SW,236,3.3,5.8,80,0.00,CLR,,0.00,WeatherDisplay:10.37,2013-03-15 02:43:00,
2013-03-14 21:47:00,27.7,22.3,30.04,WSW,248,4.0,6.1,80,0.00,CLR,,0.00,WeatherDisplay:10.37,2013-03-15 02:47:00,
2013-03-14 21:48:00,27.6,22.2,30.04,SW,222,3.1,4.6,80,0.00,CLR,,0.00,WeatherDisplay:10.37,2013-03-15 02:48:00,
2013-03-14 21:52:00,27.7,22.3,30.04,SSW,205,2.0,4.6,80,0.00,CLR,,0.00,WeatherDisplay:10.37,2013-03-15 02:52:00,
2013-03-14 21:53:00,27.7,22.3,30.04,SW,227,1.8,2.8,80,0.00,CLR,,0.00,WeatherDisplay:10.37,2013-03-15 02:53:00,
2013-03-14 21:54:00,27.7,22.3,30.04,WSW,256,1.5,2.3,80,0.00,CLR,,0.00,WeatherDisplay:10.37,2013-03-15 02:54:00,
2013-03-14 21:57:00,27.7,22.3,30.04,SW,216,1.4,3.5,80,0.00,CLR,,0.00,WeatherDisplay:10.37,2013-03-15 02:57:00,
2013-03-14 21:58:00,27.7,22.3,30.04,WSW,250,2.4,4.6,80,0.00,CLR,,0.00,WeatherDisplay:10.37,2013-03-15 02:58:00,
2013-03-14 21:59:00,27.7,22.3,30.04,SSW,208,1.5,2.3,80,0.00,CLR,,0.00,WeatherDisplay:10.37,2013-03-15 02:59:00,
2013-03-14 22:02:00,27.8,22.4,30.05,SSW,200,0.3,1.1,80,0.00,CLR,,0.00,WeatherDisplay:10.37,2013-03-15 03:02:00,
2013-03-14 22:03:00,27.7,22.3,30.05,SSW,200,0.0,0.0,80,0.00,CLR,,0.00,WeatherDisplay:10.37,2013-03-15 03:03:00,
2013-03-14 22:04:00,27.8,22.4,30.05,SSW,200,0.0,0.0,80,0.00,CLR,,0.00,WeatherDisplay:10.37,2013-03-15 03:04:00,
2013-03-14 22:07:00,27.7,22.3,30.05,SW,215,0.0,0.0,80,0.00,CLR,,0.00,WeatherDisplay:10.37,2013-03-15 03:07:00,
2013-03-14 22:08:00,27.7,22.3,30.05,SW,215,0.0,0.0,80,0.00,CLR,,0.00,WeatherDisplay:10.37,2013-03-15 03:08:00,
2013-03-14 22:09:00,27.7,22.3,30.05,WSW,246,0.6,2.3,80,0.00,CLR,,0.00,WeatherDisplay:10.37,2013-03-15 03:09:00,
2013-03-14 22:14:00,27.5,22.1,30.05,SSW,200,0.4,1.1,80,0.00,CLR,,0.00,WeatherDisplay:10.37,2013-03-15 03:14:00,
2013-03-14 22:15:00,27.6,22.2,30.05,WSW,254,1.3,1.7,80,0.00,CLR,,0.00,WeatherDisplay:10.37,2013-03-15 03:15:00,
2013-03-14 22:19:00,27.3,21.9,30.05,SW,219,0.5,2.3,80,0.00,CLR,,0.00,WeatherDisplay:10.37,2013-03-15 03:19:00,
2013-03-14 22:20:00,27.3,21.9,30.05,SW,224,0.6,1.1,80,0.00,CLR,,0.00,WeatherDisplay:10.37,2013-03-15 03:20:00,
2013-03-14 22:24:00,27.1,21.7,30.05,SW,224,0.0,0.0,80,0.00,CLR,,0.00,WeatherDisplay:10.37,2013-03-15 03:24:00,
2013-03-14 22:25:00,27.0,21.7,30.05,SW,224,0.0,0.0,80,0.00,CLR,,0.00,WeatherDisplay:10.37,2013-03-15 03:25:00,
2013-03-14 22:26:00,27.1,21.7,30.05,SW,224,0.0,0.0,80,0.00,CLR,,0.00,WeatherDisplay:10.37,2013-03-15 03:26:00,
2013-03-14 22:29:00,27.0,21.7,30.05,SW,224,0.0,0.0,80,0.00,CLR,,0.00,WeatherDisplay:10.37,2013-03-15 03:29:00,
2013-03-14 22:30:00,26.9,21.6,30.05,SW,224,0.0,0.0,80,0.00,CLR,,0.00,WeatherDisplay:10.37,2013-03-15 03:30:00,
2013-03-14 22:31:00,26.9,21.6,30.05,WSW,258,0.7,1.5,80,0.00,CLR,,0.00,WeatherDisplay:10.37,2013-03-15 03:31:00,
2013-03-14 22:35:00,26.8,21.5,30.06,WSW,248,1.1,2.3,80,0.00,CLR,,0.00,WeatherDisplay:10.37,2013-03-15 03:35:00,
2013-03-14 22:36:00,26.7,21.4,30.06,SW,227,1.5,2.7,80,0.00,CLR,,0.00,WeatherDisplay:10.37,2013-03-15 03:36:00,
2013-03-14 22:40:00,26.7,21.4,30.05,SSW,213,1.7,2.6,80,0.00,CLR,,0.00,WeatherDisplay:10.37,2013-03-15 03:40:00,
2013-03-14 22:41:00,26.6,21.3,30.06,WSW,257,1.7,2.3,80,0.00,CLR,,0.00,WeatherDisplay:10.37,2013-03-15 03:41:00,
2013-03-14 22:45:00,26.5,21.2,30.05,WNW,282,2.7,3.5,80,0.00,CLR,,0.00,WeatherDisplay:10.37,2013-03-15 03:45:00,
2013-03-14 22:46:00,26.5,21.2,30.05,WSW,244,0.9,2.3,80,0.00,CLR,,0.00,WeatherDisplay:10.37,2013-03-15 03:46:00,
2013-03-14 22:47:00,26.6,21.3,30.05,SW,217,1.5,2.3,80,0.00,CLR,,0.00,WeatherDisplay:10.37,2013-03-15 03:47:00,
2013-03-14 22:51:00,26.5,21.5,30.05,WSW,258,0.0,0.0,81,0.00,CLR,,0.00,WeatherDisplay:10.37,2013-03-15 03:51:00,
2013-03-14 22:52:00,26.5,21.5,30.05,WSW,258,0.0,0.0,81,0.00,CLR,,0.00,WeatherDisplay:10.37,2013-03-15 03:52:00,
2013-03-14 22:56:00,26.4,21.4,30.05,WSW,258,0.0,0.0,81,0.00,CLR,,0.00,WeatherDisplay:10.37,2013-03-15 03:56:00,
2013-03-14 22:57:00,26.4,21.4,30.05,WSW,258,0.0,0.0,81,0.00,CLR,,0.00,WeatherDisplay:10.37,2013-03-15 03:57:00,
2013-03-14 23:00:00,26.4,21.4,30.05,WSW,258,0.0,0.0,81,0.00,CLR,,0.00,WeatherDisplay:10.37,2013-03-15 04:00:00,
2013-03-14 23:05:00,26.4,21.4,30.05,WSW,258,0.0,0.0,81,0.00,CLR,,0.00,WeatherDisplay:10.37,2013-03-15 04:05:00,
2013-03-14 23:10:00,26.3,21.3,30.05,WSW,258,0.0,0.0,81,0.00,CLR,,0.00,WeatherDisplay:10.37,2013-03-15 04:10:00,
2013-03-14 23:15:00,26.2,21.2,30.05,SW,229,0.0,1.1,81,0.00,CLR,,0.00,WeatherDisplay:10.37,2013-03-15 04:15:00,
2013-03-14 23:20:00,26.1,21.1,30.05,SW,229,0.0,0.0,81,0.00,CLR,,0.00,WeatherDisplay:10.37,2013-03-15 04:20:00,
2013-03-14 23:25:00,26.0,21.0,30.05,SW,229,0.0,0.0,81,0.00,CLR,,0.00,WeatherDisplay:10.37,2013-03-15 04:25:00,
2013-03-14 23:26:00,26.0,21.0,30.05,SW,229,0.0,0.0,81,0.00,CLR,,0.00,WeatherDisplay:10.37,2013-03-15 04:26:00,
2013-03-14 23:30:00,25.8,20.8,30.05,SW,229,0.0,0.0,81,0.00,CLR,,0.00,WeatherDisplay:10.37,2013-03-15 04:30:00,
2013-03-14 23:31:00,25.9,20.9,30.05,SW,229,0.0,0.0,81,0.00,CLR,,0.00,WeatherDisplay:10.37,2013-03-15 04:31:00,
2013-03-14 23:35:00,25.8,20.8,30.05,SW,229,0.0,0.0,81,0.00,CLR,,0.00,WeatherDisplay:10.37,2013-03-15 04:35:00,
2013-03-14 23:36:00,25.7,20.7,30.05,SW,229,0.0,0.0,81,0.00,CLR,,0.00,WeatherDisplay:10.37,2013-03-15 04:36:00,
2013-03-14 23:40:00,25.6,20.6,30.04,SW,229,0.0,0.0,81,0.00,CLR,,0.00,WeatherDisplay:10.37,2013-03-15 04:40:00,
2013-03-14 23:41:00,25.6,20.6,30.04,SW,229,0.0,0.0,81,0.00,CLR,,0.00,WeatherDisplay:10.37,2013-03-15 04:41:00,
2013-03-14 23:42:00,25.6,20.3,30.04,SW,229,0.0,0.0,80,0.00,CLR,,0.00,WeatherDisplay:10.37,2013-03-15 04:42:00,
2013-03-14 23:46:00,25.5,20.2,30.04,SW,229,0.0,0.0,80,0.00,CLR,,0.00,WeatherDisplay:10.37,2013-03-15 04:46:00,
2013-03-14 23:47:00,25.4,20.1,30.04,SW,229,0.0,0.0,80,0.00,CLR,,0.00,WeatherDisplay:10.37,2013-03-15 04:47:00,
2013-03-14 23:51:00,25.3,20.0,30.03,SW,229,0.0,0.0,80,0.00,CLR,,0.00,WeatherDisplay:10.37,2013-03-15 04:51:00,
2013-03-14 23:52:00,25.2,19.9,30.03,SW,229,0.0,0.0,80,0.00,CLR,,0.00,WeatherDisplay:10.37,2013-03-15 04:52:00,
2013-03-14 23:56:00,25.1,19.8,30.03,SW,229,0.0,0.0,80,0.00,CLR,,0.00,WeatherDisplay:10.37,2013-03-15 04:56:00,
2013-03-14 23:57:00,25.1,19.8,30.03,SW,229,0.0,0.0,80,0.00,CLR,,0.00,WeatherDisplay:10.37,2013-03-15 04:57:00,